Observation data for Crowell on 09/10/2017      Previous  Date       Current Mesonet Observations  Soil Data  Daily Summary Page  Observations in Plain Language
KCR1 100500Z 10004KT 20/12 A3019 RMK A01 T01980121  RH  061%=      5-min Rain = 0
KCR1 100501Z 10004KT 20/12 A3019 RMK A01 T01970122  RH  062%=      5-min Rain = 0
KCR1 100502Z 10004KT 20/12 A3019 RMK A01 T01970121  RH  062%=      5-min Rain = 0
KCR1 100503Z 11005KT 20/12 A3018 RMK A01 T01960122  RH  062%=      5-min Rain = 0
KCR1 100504Z 11005KT 20/12 A3018 RMK A01 T01960121  RH  062%=      5-min Rain = 0
KCR1 100505Z 11005KT 20/12 A3018 RMK A01 T01960121  RH  062%=      5-min Rain = 0
KCR1 100506Z 11004KT 20/12 A3018 RMK A01 T01960121  RH  062%=      5-min Rain = 0
KCR1 100507Z 11005KT 20/12 A3018 RMK A01 T01950121  RH  062%=      5-min Rain = 0
KCR1 100508Z 11005KT 20/12 A3018 RMK A01 T01950121  RH  062%=      5-min Rain = 0
KCR1 100509Z 11005KT 19/12 A3018 RMK A01 T01940121  RH  063%=      5-min Rain = 0
KCR1 100510Z 12005KT 19/12 A3018 RMK A01 T01930121  RH  063%=      5-min Rain = 0
KCR1 100511Z 12005KT 19/12 A3018 RMK A01 T01930121  RH  063%=      5-min Rain = 0
KCR1 100512Z 12005KT 19/12 A3019 RMK A01 T01920121  RH  063%=      5-min Rain = 0
KCR1 100513Z 11005KT 19/12 A3019 RMK A01 T01920121  RH  063%=      5-min Rain = 0
KCR1 100514Z 11005KT 19/12 A3019 RMK A01 T01910121  RH  064%=      5-min Rain = 0
KCR1 100515Z 11006KT 19/12 A3019 RMK A01 T01910121  RH  064%=      5-min Rain = 0
KCR1 100516Z 11006KT 19/12 A3019 RMK A01 T01910120  RH  064%=      5-min Rain = 0
KCR1 100517Z 11005KT 19/12 A3019 RMK A01 T01910121  RH  064%=      5-min Rain = 0
KCR1 100518Z 11005KT 19/12 A3019 RMK A01 T01910121  RH  064%=      5-min Rain = 0
KCR1 100519Z 11005KT 19/12 A3019 RMK A01 T01910121  RH  064%=      5-min Rain = 0
KCR1 100520Z 12005KT 19/12 A3019 RMK A01 T01900121  RH  064%=      5-min Rain = 0
KCR1 100521Z 12005KT 19/12 A3019 RMK A01 T01910121  RH  064%=      5-min Rain = 0
KCR1 100522Z 12005KT 19/12 A3019 RMK A01 T01900121  RH  064%=      5-min Rain = 0
KCR1 100523Z 12005KT 19/12 A3019 RMK A01 T01890120  RH  064%=      5-min Rain = 0
KCR1 100524Z 12005KT 19/12 A3019 RMK A01 T01890120  RH  064%=      5-min Rain = 0
KCR1 100525Z 12005KT 19/12 A3019 RMK A01 T01880120  RH  064%=      5-min Rain = 0
KCR1 100526Z 11004KT 19/12 A3019 RMK A01 T01880120  RH  065%=      5-min Rain = 0
KCR1 100527Z 11005KT 19/12 A3019 RMK A01 T01870120  RH  065%=      5-min Rain = 0
KCR1 100528Z 12004KT 19/12 A3019 RMK A01 T01870120  RH  065%=      5-min Rain = 0
KCR1 100529Z 12004KT 19/12 A3019 RMK A01 T01860120  RH  065%=      5-min Rain = 0
KCR1 100530Z 12004KT 19/12 A3019 RMK A01 T01860119  RH  065%=      5-min Rain = 0
KCR1 100531Z 12004KT 19/12 A3019 RMK A01 T01860119  RH  065%=      5-min Rain = 0
KCR1 100532Z 11004KT 19/12 A3019 RMK A01 T01860119  RH  065%=      5-min Rain = 0
KCR1 100533Z 11004KT 19/12 A3019 RMK A01 T01850119  RH  065%=      5-min Rain = 0
KCR1 100534Z 11005KT 19/12 A3019 RMK A01 T01850119  RH  065%=      5-min Rain = 0
KCR1 100535Z 11005KT 18/12 A3019 RMK A01 T01840119  RH  066%=      5-min Rain = 0
KCR1 100536Z 11005KT 19/12 A3019 RMK A01 T01850119  RH  066%=      5-min Rain = 0
KCR1 100537Z 12005KT 19/12 A3019 RMK A01 T01850119  RH  066%=      5-min Rain = 0
KCR1 100538Z 12004KT 19/12 A3019 RMK A01 T01850119  RH  065%=      5-min Rain = 0
KCR1 100539Z 12004KT 19/12 A3019 RMK A01 T01850119  RH  065%=      5-min Rain = 0
KCR1 100540Z 11004KT 18/12 A3019 RMK A01 T01840119  RH  066%=      5-min Rain = 0
KCR1 100541Z 11004KT 18/12 A3019 RMK A01 T01840118  RH  066%=      5-min Rain = 0
KCR1 100542Z 11004KT 18/12 A3019 RMK A01 T01840118  RH  066%=      5-min Rain = 0
KCR1 100543Z 11004KT 18/12 A3019 RMK A01 T01830118  RH  066%=      5-min Rain = 0
KCR1 100544Z 12004KT 18/12 A3019 RMK A01 T01830118  RH  066%=      5-min Rain = 0
KCR1 100545Z 12004KT 18/12 A3019 RMK A01 T01830117  RH  066%=      5-min Rain = 0
KCR1 100546Z 12004KT 18/12 A3019 RMK A01 T01830118  RH  066%=      5-min Rain = 0
KCR1 100547Z 12004KT 18/12 A3019 RMK A01 T01830118  RH  066%=      5-min Rain = 0
KCR1 100548Z 12004KT 18/12 A3019 RMK A01 T01830118  RH  066%=      5-min Rain = 0
KCR1 100549Z 12004KT 18/12 A3019 RMK A01 T01830118  RH  066%=      5-min Rain = 0
KCR1 100550Z 12004KT 18/12 A3019 RMK A01 T01830118  RH  066%=      5-min Rain = 0
KCR1 100551Z 12004KT 18/12 A3019 RMK A01 T01830118  RH  066%=      5-min Rain = 0
KCR1 100552Z 12004KT 18/12 A3019 RMK A01 T01820117  RH  066%=      5-min Rain = 0
KCR1 100553Z 12004KT 18/12 A3019 RMK A01 T01820117  RH  066%=      5-min Rain = 0
KCR1 100554Z 12004KT 18/12 A3019 RMK A01 T01820117  RH  066%=      5-min Rain = 0
KCR1 100555Z 12004KT 18/12 A3019 RMK A01 T01810117  RH  066%=      5-min Rain = 0
KCR1 100556Z 12004KT 18/12 A3019 RMK A01 T01810117  RH  066%=      5-min Rain = 0
KCR1 100557Z 12004KT 18/12 A3019 RMK A01 T01810117  RH  066%=      5-min Rain = 0
KCR1 100558Z 12004KT 18/12 A3019 RMK A01 T01810117  RH  066%=      5-min Rain = 0
KCR1 100559Z 11004KT 18/12 A3019 RMK A01 T01810117  RH  066%=      5-min Rain = 0
KCR1 100600Z 11004KT 18/12 A3019 RMK A01 T01810117  RH  066%=      5-min Rain = 0
KCR1 100601Z 11005KT 18/12 A3019 RMK A01 T01800117  RH  066%=      5-min Rain = 0
KCR1 100602Z 11005KT 18/12 A3019 RMK A01 T01800117  RH  067%=      5-min Rain = 0
KCR1 100603Z 11005KT 18/12 A3019 RMK A01 T01800118  RH  067%=      5-min Rain = 0
KCR1 100604Z 11005KT 18/12 A3019 RMK A01 T01800118  RH  067%=      5-min Rain = 0
KCR1 100605Z 11005KT 18/12 A3019 RMK A01 T01800118  RH  067%=      5-min Rain = 0
KCR1 100606Z 11005KT 18/12 A3019 RMK A01 T01800118  RH  067%=      5-min Rain = 0
KCR1 100607Z 11005KT 18/12 A3019 RMK A01 T01800118  RH  067%=      5-min Rain = 0
KCR1 100608Z 11005KT 18/12 A3019 RMK A01 T01800118  RH  067%=      5-min Rain = 0
KCR1 100609Z 11005KT 18/12 A3019 RMK A01 T01800118  RH  067%=      5-min Rain = 0
KCR1 100610Z 11005KT 18/12 A3019 RMK A01 T01800118  RH  067%=      5-min Rain = 0
KCR1 100611Z 11005KT 18/12 A3019 RMK A01 T01800118  RH  067%=      5-min Rain = 0
KCR1 100612Z 11005KT 18/12 A3019 RMK A01 T01810119  RH  067%=      5-min Rain = 0
KCR1 100613Z 11005KT 18/12 A3019 RMK A01 T01810118  RH  067%=      5-min Rain = 0
KCR1 100614Z 11005KT 18/12 A3019 RMK A01 T01810119  RH  067%=      5-min Rain = 0
KCR1 100615Z 12005KT 18/12 A3019 RMK A01 T01810118  RH  067%=      5-min Rain = 0
KCR1 100616Z 12005KT 18/12 A3019 RMK A01 T01800118  RH  067%=      5-min Rain = 0
KCR1 100617Z 12005KT 18/12 A3019 RMK A01 T01800118  RH  067%=      5-min Rain = 0
KCR1 100618Z 12005KT 18/12 A3019 RMK A01 T01790118  RH  067%=      5-min Rain = 0
KCR1 100619Z 12005KT 18/12 A3019 RMK A01 T01790118  RH  068%=      5-min Rain = 0
KCR1 100620Z 13005KT 18/12 A3019 RMK A01 T01780118  RH  068%=      5-min Rain = 0
KCR1 100621Z 12005KT 18/12 A3019 RMK A01 T01770117  RH  068%=      5-min Rain = 0
KCR1 100622Z 13005KT 18/12 A3019 RMK A01 T01770117  RH  068%=      5-min Rain = 0
KCR1 100623Z 12005KT 18/12 A3019 RMK A01 T01760118  RH  068%=      5-min Rain = 0
KCR1 100624Z 12005KT 18/12 A3019 RMK A01 T01760117  RH  069%=      5-min Rain = 0
KCR1 100625Z 12005KT 18/12 A3019 RMK A01 T01750117  RH  069%=      5-min Rain = 0
KCR1 100626Z 12005KT 18/12 A3019 RMK A01 T01750117  RH  069%=      5-min Rain = 0
KCR1 100627Z 12004KT 18/12 A3019 RMK A01 T01750117  RH  069%=      5-min Rain = 0
KCR1 100628Z 13004KT 18/12 A3019 RMK A01 T01750117  RH  069%=      5-min Rain = 0
KCR1 100629Z 13005KT 17/12 A3019 RMK A01 T01740117  RH  069%=      5-min Rain = 0
KCR1 100630Z 12005KT 17/12 A3019 RMK A01 T01740117  RH  069%=      5-min Rain = 0
KCR1 100631Z 13005KT 17/12 A3019 RMK A01 T01740117  RH  069%=      5-min Rain = 0
KCR1 100632Z 13005KT 17/12 A3019 RMK A01 T01740117  RH  069%=      5-min Rain = 0
KCR1 100633Z 13004KT 17/12 A3019 RMK A01 T01740117  RH  069%=      5-min Rain = 0
KCR1 100634Z 13004KT 17/12 A3019 RMK A01 T01740117  RH  069%=      5-min Rain = 0
KCR1 100635Z 13004KT 17/12 A3019 RMK A01 T01730116  RH  069%=      5-min Rain = 0
KCR1 100636Z 13004KT 17/12 A3019 RMK A01 T01740117  RH  069%=      5-min Rain = 0
KCR1 100637Z 13004KT 17/12 A3019 RMK A01 T01730116  RH  069%=      5-min Rain = 0
KCR1 100638Z 13004KT 17/12 A3019 RMK A01 T01730116  RH  069%=      5-min Rain = 0
KCR1 100639Z 13004KT 17/12 A3019 RMK A01 T01730116  RH  069%=      5-min Rain = 0
KCR1 100640Z 13004KT 17/12 A3019 RMK A01 T01730116  RH  069%=      5-min Rain = 0
KCR1 100641Z 13004KT 17/12 A3019 RMK A01 T01730116  RH  069%=      5-min Rain = 0
KCR1 100642Z 12004KT 17/12 A3019 RMK A01 T01730116  RH  069%=      5-min Rain = 0
KCR1 100643Z 12004KT 17/12 A3019 RMK A01 T01730116  RH  069%=      5-min Rain = 0
KCR1 100644Z 12004KT 17/12 A3019 RMK A01 T01730115  RH  069%=      5-min Rain = 0
KCR1 100645Z 12005KT 17/12 A3019 RMK A01 T01730115  RH  069%=      5-min Rain = 0
KCR1 100646Z 12004KT 17/12 A3019 RMK A01 T01730116  RH  069%=      5-min Rain = 0
KCR1 100647Z 12004KT 17/12 A3019 RMK A01 T01730116  RH  069%=      5-min Rain = 0
KCR1 100648Z 12004KT 17/12 A3019 RMK A01 T01720115  RH  069%=      5-min Rain = 0
KCR1 100649Z 11004KT 17/12 A3019 RMK A01 T01730115  RH  069%=      5-min Rain = 0
KCR1 100650Z 11004KT 17/12 A3019 RMK A01 T01730115  RH  069%=      5-min Rain = 0
KCR1 100651Z 11004KT 17/12 A3019 RMK A01 T01720115  RH  069%=      5-min Rain = 0
KCR1 100652Z 11004KT 17/12 A3019 RMK A01 T01720115  RH  069%=      5-min Rain = 0
KCR1 100653Z 11004KT 17/12 A3019 RMK A01 T01730116  RH  069%=      5-min Rain = 0
KCR1 100654Z 11004KT 17/12 A3019 RMK A01 T01730116  RH  069%=      5-min Rain = 0
KCR1 100655Z 11005KT 17/12 A3019 RMK A01 T01730116  RH  069%=      5-min Rain = 0
KCR1 100656Z 11005KT 17/12 A3019 RMK A01 T01730116  RH  069%=      5-min Rain = 0
KCR1 100657Z 11005KT 17/12 A3019 RMK A01 T01730117  RH  069%=      5-min Rain = 0
KCR1 100658Z 11004KT 17/12 A3019 RMK A01 T01730117  RH  070%=      5-min Rain = 0
KCR1 100659Z 12005KT 17/12 A3019 RMK A01 T01730117  RH  070%=      5-min Rain = 0
KCR1 100700Z 11005KT 17/12 A3019 RMK A01 T01730117  RH  070%=      5-min Rain = 0
KCR1 100701Z 11005KT 17/12 A3019 RMK A01 T01720117  RH  070%=      5-min Rain = 0
KCR1 100702Z 11005KT 17/12 A3019 RMK A01 T01720117  RH  070%=      5-min Rain = 0
KCR1 100703Z 12004KT 17/12 A3019 RMK A01 T01720117  RH  070%=      5-min Rain = 0
KCR1 100704Z 11004KT 17/12 A3019 RMK A01 T01720117  RH  070%=      5-min Rain = 0
KCR1 100705Z 11004KT 17/12 A3019 RMK A01 T01720117  RH  070%=      5-min Rain = 0
KCR1 100706Z 11004KT 17/12 A3019 RMK A01 T01710117  RH  070%=      5-min Rain = 0
KCR1 100707Z 11004KT 17/12 A3019 RMK A01 T01720117  RH  070%=      5-min Rain = 0
KCR1 100708Z 12005KT 17/12 A3019 RMK A01 T01720117  RH  070%=      5-min Rain = 0
KCR1 100709Z 12004KT 17/12 A3019 RMK A01 T01720117  RH  070%=      5-min Rain = 0
KCR1 100710Z 11004KT 17/12 A3019 RMK A01 T01710117  RH  070%=      5-min Rain = 0
KCR1 100711Z 11005KT 17/12 A3019 RMK A01 T01720117  RH  070%=      5-min Rain = 0
KCR1 100712Z 11004KT 17/12 A3019 RMK A01 T01720118  RH  070%=      5-min Rain = 0
KCR1 100713Z 11004KT 17/12 A3019 RMK A01 T01710117  RH  071%=      5-min Rain = 0
KCR1 100714Z 11004KT 17/12 A3019 RMK A01 T01710117  RH  071%=      5-min Rain = 0
KCR1 100715Z 11004KT 17/12 A3019 RMK A01 T01710117  RH  071%=      5-min Rain = 0
KCR1 100716Z 11004KT 17/12 A3019 RMK A01 T01710117  RH  071%=      5-min Rain = 0
KCR1 100717Z 12004KT 17/12 A3019 RMK A01 T01700117  RH  071%=      5-min Rain = 0
KCR1 100718Z 12004KT 17/12 A3019 RMK A01 T01700117  RH  071%=      5-min Rain = 0
KCR1 100719Z 11004KT 17/12 A3019 RMK A01 T01700117  RH  071%=      5-min Rain = 0
KCR1 100720Z 11004KT 17/12 A3019 RMK A01 T01700117  RH  071%=      5-min Rain = 0
KCR1 100721Z 11004KT 17/12 A3019 RMK A01 T01700117  RH  071%=      5-min Rain = 0
KCR1 100722Z 11004KT 17/12 A3019 RMK A01 T01700117  RH  071%=      5-min Rain = 0
KCR1 100723Z 11004KT 17/12 A3019 RMK A01 T01700117  RH  071%=      5-min Rain = 0
KCR1 100724Z 11004KT 17/12 A3019 RMK A01 T01700118  RH  071%=      5-min Rain = 0
KCR1 100725Z 11004KT 17/12 A3019 RMK A01 T01700118  RH  071%=      5-min Rain = 0
KCR1 100726Z 11003KT 17/12 A3019 RMK A01 T01700118  RH  072%=      5-min Rain = 0
KCR1 100727Z 11003KT 17/12 A3019 RMK A01 T01700118  RH  072%=      5-min Rain = 0
KCR1 100728Z 11003KT 17/12 A3019 RMK A01 T01700118  RH  072%=      5-min Rain = 0
KCR1 100729Z 11003KT 17/12 A3019 RMK A01 T01700118  RH  072%=      5-min Rain = 0
KCR1 100730Z 11003KT 17/12 A3019 RMK A01 T01700118  RH  071%=      5-min Rain = 0
KCR1 100731Z 11003KT 17/12 A3019 RMK A01 T01700118  RH  072%=      5-min Rain = 0
KCR1 100732Z 11003KT 17/12 A3019 RMK A01 T01700118  RH  071%=      5-min Rain = 0
KCR1 100733Z 10003KT 17/12 A3019 RMK A01 T01700119  RH  071%=      5-min Rain = 0
KCR1 100734Z 10003KT 17/12 A3019 RMK A01 T01700118  RH  072%=      5-min Rain = 0
KCR1 100735Z 11003KT 17/12 A3019 RMK A01 T01700118  RH  072%=      5-min Rain = 0
KCR1 100736Z 11003KT 17/12 A3019 RMK A01 T01700119  RH  072%=      5-min Rain = 0
KCR1 100737Z 11003KT 17/12 A3019 RMK A01 T01690118  RH  072%=      5-min Rain = 0
KCR1 100738Z 11003KT 17/12 A3019 RMK A01 T01700119  RH  072%=      5-min Rain = 0
KCR1 100739Z 11003KT 17/12 A3019 RMK A01 T01690118  RH  072%=      5-min Rain = 0
KCR1 100740Z 11003KT 17/12 A3019 RMK A01 T01690119  RH  072%=      5-min Rain = 0
KCR1 100741Z 11003KT 17/12 A3019 RMK A01 T01690119  RH  072%=      5-min Rain = 0
KCR1 100742Z 11003KT 17/12 A3019 RMK A01 T01690118  RH  072%=      5-min Rain = 0
KCR1 100743Z 10003KT 17/12 A3019 RMK A01 T01690118  RH  072%=      5-min Rain = 0
KCR1 100744Z 10003KT 17/12 A3019 RMK A01 T01700118  RH  072%=      5-min Rain = 0
KCR1 100745Z 10003KT 17/12 A3019 RMK A01 T01700119  RH  072%=      5-min Rain = 0
KCR1 100746Z 10003KT 17/12 A302 RMK A01 T01690118  RH  072%=      5-min Rain = 0
KCR1 100747Z 10003KT 17/12 A302 RMK A01 T01690118  RH  072%=      5-min Rain = 0
KCR1 100748Z 10003KT 17/12 A302 RMK A01 T01690118  RH  072%=      5-min Rain = 0
KCR1 100749Z 10003KT 17/12 A302 RMK A01 T01690118  RH  072%=      5-min Rain = 0
KCR1 100750Z 10003KT 17/12 A302 RMK A01 T01690118  RH  072%=      5-min Rain = 0
KCR1 100751Z 10003KT 17/12 A302 RMK A01 T01690118  RH  072%=      5-min Rain = 0
KCR1 100752Z 10003KT 17/12 A302 RMK A01 T01690118  RH  072%=      5-min Rain = 0
KCR1 100753Z 10003KT 17/12 A302 RMK A01 T01690118  RH  072%=      5-min Rain = 0
KCR1 100754Z 11003KT 17/12 A302 RMK A01 T01690118  RH  072%=      5-min Rain = 0
KCR1 100755Z 11003KT 17/12 A302 RMK A01 T01690118  RH  072%=      5-min Rain = 0
KCR1 100756Z 10003KT 17/12 A3019 RMK A01 T01690118  RH  072%=      5-min Rain = 0
KCR1 100757Z 10003KT 17/12 A3019 RMK A01 T01690118  RH  072%=      5-min Rain = 0
KCR1 100758Z 10003KT 17/12 A3019 RMK A01 T01690119  RH  072%=      5-min Rain = 0
KCR1 100759Z 10003KT 17/12 A302 RMK A01 T01700119  RH  072%=      5-min Rain = 0
KCR1 100800Z 10003KT 17/12 A302 RMK A01 T01700119  RH  072%=      5-min Rain = 0
KCR1 100801Z 10003KT 17/12 A302 RMK A01 T01700118  RH  071%=      5-min Rain = 0
KCR1 100802Z 09004KT 17/12 A302 RMK A01 T01700119  RH  072%=      5-min Rain = 0
KCR1 100803Z 09004KT 17/12 A3019 RMK A01 T01700119  RH  072%=      5-min Rain = 0
KCR1 100804Z 10004KT 17/12 A3019 RMK A01 T01700118  RH  072%=      5-min Rain = 0
KCR1 100805Z 09004KT 17/12 A3019 RMK A01 T01690118  RH  072%=      5-min Rain = 0
KCR1 100806Z 10004KT 17/12 A3019 RMK A01 T01690119  RH  072%=      5-min Rain = 0
KCR1 100807Z 10004KT 17/12 A3019 RMK A01 T01680118  RH  072%=      5-min Rain = 0
KCR1 100808Z 10004KT 17/12 A3019 RMK A01 T01680118  RH  072%=      5-min Rain = 0
KCR1 100809Z 10004KT 17/12 A3019 RMK A01 T01680119  RH  072%=      5-min Rain = 0
KCR1 100810Z 10004KT 17/12 A302 RMK A01 T01680118  RH  072%=      5-min Rain = 0
KCR1 100811Z 10004KT 17/12 A302 RMK A01 T01680118  RH  073%=      5-min Rain = 0
KCR1 100812Z 10004KT 17/12 A302 RMK A01 T01680118  RH  072%=      5-min Rain = 0
KCR1 100813Z 10004KT 17/12 A302 RMK A01 T01680118  RH  072%=      5-min Rain = 0
KCR1 100814Z 11004KT 17/12 A302 RMK A01 T01680118  RH  072%=      5-min Rain = 0
KCR1 100815Z 10004KT 17/12 A302 RMK A01 T01680118  RH  072%=      5-min Rain = 0
KCR1 100816Z 11004KT 17/12 A302 RMK A01 T01680118  RH  072%=      5-min Rain = 0
KCR1 100817Z 11004KT 17/12 A302 RMK A01 T01680119  RH  073%=      5-min Rain = 0
KCR1 100818Z 11004KT 17/12 A302 RMK A01 T01680119  RH  073%=      5-min Rain = 0
KCR1 100819Z 11004KT 17/12 A302 RMK A01 T01670119  RH  073%=      5-min Rain = 0
KCR1 100820Z 11004KT 17/12 A302 RMK A01 T01670119  RH  073%=      5-min Rain = 0
KCR1 100821Z 11004KT 17/12 A302 RMK A01 T01660119  RH  074%=      5-min Rain = 0
KCR1 100822Z 11004KT 17/12 A302 RMK A01 T01660119  RH  074%=      5-min Rain = 0
KCR1 100823Z 11004KT 17/12 A302 RMK A01 T01660119  RH  074%=      5-min Rain = 0
KCR1 100824Z 11004KT 17/12 A302 RMK A01 T01660119  RH  074%=      5-min Rain = 0
KCR1 100825Z 11004KT 17/12 A302 RMK A01 T01660119  RH  074%=      5-min Rain = 0
KCR1 100826Z 10004KT 17/12 A302 RMK A01 T01670120  RH  074%=      5-min Rain = 0
KCR1 100827Z 11004KT 17/12 A302 RMK A01 T01670120  RH  074%=      5-min Rain = 0
KCR1 100828Z 11003KT 17/12 A3019 RMK A01 T01670120  RH  074%=      5-min Rain = 0
KCR1 100829Z 10003KT 17/12 A302 RMK A01 T01660120  RH  074%=      5-min Rain = 0
KCR1 100830Z 11003KT 17/12 A302 RMK A01 T01660120  RH  074%=      5-min Rain = 0
KCR1 100831Z 11003KT 17/12 A302 RMK A01 T01660119  RH  074%=      5-min Rain = 0
KCR1 100832Z 10003KT 17/12 A302 RMK A01 T01660119  RH  074%=      5-min Rain = 0
KCR1 100833Z 10003KT 17/12 A302 RMK A01 T01660119  RH  074%=      5-min Rain = 0
KCR1 100834Z 10003KT 17/12 A302 RMK A01 T01660119  RH  074%=      5-min Rain = 0
KCR1 100835Z 10003KT 17/12 A302 RMK A01 T01660118  RH  073%=      5-min Rain = 0
KCR1 100836Z 10003KT 17/12 A302 RMK A01 T01660118  RH  073%=      5-min Rain = 0
KCR1 100837Z 10003KT 17/12 A302 RMK A01 T01660118  RH  073%=      5-min Rain = 0
KCR1 100838Z 10003KT 17/12 A302 RMK A01 T01660117  RH  073%=      5-min Rain = 0
KCR1 100839Z 10003KT 17/12 A302 RMK A01 T01660117  RH  073%=      5-min Rain = 0
KCR1 100840Z 11003KT 17/12 A302 RMK A01 T01670118  RH  073%=      5-min Rain = 0
KCR1 100841Z 11003KT 17/12 A302 RMK A01 T01660117  RH  073%=      5-min Rain = 0
KCR1 100842Z 11003KT 17/12 A302 RMK A01 T01670118  RH  073%=      5-min Rain = 0
KCR1 100843Z 11003KT 17/12 A302 RMK A01 T01670118  RH  073%=      5-min Rain = 0
KCR1 100844Z 11003KT 17/12 A302 RMK A01 T01670118  RH  073%=      5-min Rain = 0
KCR1 100845Z 11003KT 17/12 A302 RMK A01 T01670118  RH  073%=      5-min Rain = 0
KCR1 100846Z 11003KT 17/12 A302 RMK A01 T01670118  RH  073%=      5-min Rain = 0
KCR1 100847Z 11003KT 17/12 A302 RMK A01 T01670118  RH  073%=      5-min Rain = 0
KCR1 100848Z 11003KT 17/12 A302 RMK A01 T01670119  RH  073%=      5-min Rain = 0
KCR1 100849Z 11003KT 17/12 A302 RMK A01 T01670119  RH  073%=      5-min Rain = 0
KCR1 100850Z 11003KT 17/12 A302 RMK A01 T01660119  RH  073%=      5-min Rain = 0
KCR1 100851Z 12003KT 17/12 A302 RMK A01 T01670119  RH  073%=      5-min Rain = 0
KCR1 100852Z 11003KT 17/12 A302 RMK A01 T01670119  RH  073%=      5-min Rain = 0
KCR1 100853Z 11003KT 17/12 A302 RMK A01 T01670119  RH  073%=      5-min Rain = 0
KCR1 100854Z 11003KT 17/12 A302 RMK A01 T01660119  RH  074%=      5-min Rain = 0
KCR1 100855Z 11003KT 17/12 A302 RMK A01 T01670119  RH  074%=      5-min Rain = 0
KCR1 100856Z 11003KT 17/12 A302 RMK A01 T01670120  RH  074%=      5-min Rain = 0
KCR1 100857Z 11003KT 17/12 A302 RMK A01 T01670119  RH  074%=      5-min Rain = 0
KCR1 100858Z 11003KT 17/12 A302 RMK A01 T01670120  RH  074%=      5-min Rain = 0
KCR1 100859Z 11003KT 17/12 A302 RMK A01 T01670120  RH  074%=      5-min Rain = 0
KCR1 100900Z 11003KT 17/12 A302 RMK A01 T01670120  RH  074%=      5-min Rain = 0
KCR1 100901Z 11003KT 17/12 A302 RMK A01 T01670120  RH  074%=      5-min Rain = 0
KCR1 100902Z 12003KT 17/12 A302 RMK A01 T01670120  RH  074%=      5-min Rain = 0
KCR1 100903Z 12003KT 17/12 A302 RMK A01 T01670120  RH  073%=      5-min Rain = 0
KCR1 100904Z 12003KT 17/12 A302 RMK A01 T01670120  RH  073%=      5-min Rain = 0
KCR1 100905Z 13003KT 17/12 A302 RMK A01 T01670120  RH  073%=      5-min Rain = 0
KCR1 100906Z 13003KT 17/12 A302 RMK A01 T01670120  RH  073%=      5-min Rain = 0
KCR1 100907Z 14003KT 17/12 A302 RMK A01 T01670120  RH  074%=      5-min Rain = 0
KCR1 100908Z 14003KT 17/12 A3019 RMK A01 T01670120  RH  074%=      5-min Rain = 0
KCR1 100909Z 15004KT 17/12 A3019 RMK A01 T01670120  RH  074%=      5-min Rain = 0
KCR1 100910Z 15004KT 17/12 A3019 RMK A01 T01670120  RH  074%=      5-min Rain = 0
KCR1 100911Z 15004KT 17/12 A3019 RMK A01 T01670120  RH  074%=      5-min Rain = 0
KCR1 100912Z 15004KT 17/12 A3019 RMK A01 T01680121  RH  074%=      5-min Rain = 0
KCR1 100913Z 16004KT 17/12 A3019 RMK A01 T01680121  RH  074%=      5-min Rain = 0
KCR1 100914Z 16004KT 17/12 A3019 RMK A01 T01680121  RH  074%=      5-min Rain = 0
KCR1 100915Z 16004KT 17/12 A3019 RMK A01 T01680121  RH  074%=      5-min Rain = 0
KCR1 100916Z 16004KT 17/12 A3019 RMK A01 T01680121  RH  074%=      5-min Rain = 0
KCR1 100917Z 17004KT 17/12 A3019 RMK A01 T01670121  RH  074%=      5-min Rain = 0
KCR1 100918Z 17004KT 17/12 A3019 RMK A01 T01660120  RH  074%=      5-min Rain = 0
KCR1 100919Z 17004KT 17/12 A3019 RMK A01 T01660120  RH  074%=      5-min Rain = 0
KCR1 100920Z 17004KT 17/12 A3019 RMK A01 T01650120  RH  075%=      5-min Rain = 0
KCR1 100921Z 17004KT 17/12 A3019 RMK A01 T01650120  RH  075%=      5-min Rain = 0
KCR1 100922Z 17004KT 17/12 A3019 RMK A01 T01650121  RH  075%=      5-min Rain = 0
KCR1 100923Z 17004KT 17/12 A3019 RMK A01 T01650121  RH  075%=      5-min Rain = 0
KCR1 100924Z 17004KT 17/12 A3019 RMK A01 T01650120  RH  075%=      5-min Rain = 0
KCR1 100925Z 17004KT 17/12 A3019 RMK A01 T01650121  RH  075%=      5-min Rain = 0
KCR1 100926Z 18004KT 17/12 A3019 RMK A01 T01660121  RH  075%=      5-min Rain = 0
KCR1 100927Z 18004KT 17/12 A3019 RMK A01 T01660121  RH  075%=      5-min Rain = 0
KCR1 100928Z 18003KT 17/12 A3019 RMK A01 T01660121  RH  075%=      5-min Rain = 0
KCR1 100929Z 18003KT 17/12 A3019 RMK A01 T01660121  RH  075%=      5-min Rain = 0
KCR1 100930Z 17003KT 17/12 A3019 RMK A01 T01670121  RH  074%=      5-min Rain = 0
KCR1 100931Z 17003KT 17/12 A3019 RMK A01 T01670121  RH  074%=      5-min Rain = 0
KCR1 100932Z 17002KT 17/12 A3019 RMK A01 T01680121  RH  074%=      5-min Rain = 0
KCR1 100933Z 17002KT 17/12 A3019 RMK A01 T01670121  RH  074%=      5-min Rain = 0
KCR1 100934Z 18002KT 17/12 A3019 RMK A01 T01670121  RH  074%=      5-min Rain = 0
KCR1 100935Z 18003KT 17/12 A3019 RMK A01 T01660121  RH  075%=      5-min Rain = 0
KCR1 100936Z 18003KT 17/12 A3019 RMK A01 T01660121  RH  075%=      5-min Rain = 0
KCR1 100937Z 19003KT 17/12 A3019 RMK A01 T01660122  RH  075%=      5-min Rain = 0
KCR1 100938Z 19003KT 17/12 A3019 RMK A01 T01660122  RH  075%=      5-min Rain = 0
KCR1 100939Z 19002KT 17/12 A3019 RMK A01 T01660122  RH  075%=      5-min Rain = 0
KCR1 100940Z 18002KT 17/12 A3019 RMK A01 T01660122  RH  075%=      5-min Rain = 0
KCR1 100941Z 19002KT 17/12 A3019 RMK A01 T01660122  RH  075%=      5-min Rain = 0
KCR1 100942Z 19002KT 17/12 A3019 RMK A01 T01660121  RH  075%=      5-min Rain = 0
KCR1 100943Z 19003KT 17/12 A3019 RMK A01 T01660121  RH  075%=      5-min Rain = 0
KCR1 100944Z 20003KT 17/12 A3019 RMK A01 T01660122  RH  075%=      5-min Rain = 0
KCR1 100945Z 20003KT 17/12 A3019 RMK A01 T01650121  RH  075%=      5-min Rain = 0
KCR1 100946Z 20003KT 17/12 A3019 RMK A01 T01650121  RH  075%=      5-min Rain = 0
KCR1 100947Z 20003KT 16/12 A3019 RMK A01 T01640121  RH  075%=      5-min Rain = 0
KCR1 100948Z 20002KT 16/12 A3019 RMK A01 T01640121  RH  075%=      5-min Rain = 0
KCR1 100949Z 19003KT 16/12 A3019 RMK A01 T01640121  RH  076%=      5-min Rain = 0
KCR1 100950Z 19003KT 16/12 A3019 RMK A01 T01640121  RH  076%=      5-min Rain = 0
KCR1 100951Z 19003KT 16/12 A3019 RMK A01 T01640121  RH  076%=      5-min Rain = 0
KCR1 100952Z 19003KT 16/12 A3019 RMK A01 T01630121  RH  076%=      5-min Rain = 0
KCR1 100953Z 20003KT 16/12 A3019 RMK A01 T01630121  RH  076%=      5-min Rain = 0
KCR1 100954Z 19002KT 16/12 A3019 RMK A01 T01630121  RH  076%=      5-min Rain = 0
KCR1 100955Z 19002KT 16/12 A3019 RMK A01 T01620121  RH  076%=      5-min Rain = 0
KCR1 100956Z 19002KT 16/12 A3019 RMK A01 T01620121  RH  077%=      5-min Rain = 0
KCR1 100957Z 19002KT 16/12 A3019 RMK A01 T01620121  RH  077%=      5-min Rain = 0
KCR1 100958Z 19002KT 16/12 A3019 RMK A01 T01610121  RH  077%=      5-min Rain = 0
KCR1 100959Z 19002KT 16/12 A302 RMK A01 T01620121  RH  077%=      5-min Rain = 0
KCR1 101000Z 19002KT 16/12 A302 RMK A01 T01620121  RH  077%=      5-min Rain = 0
KCR1 101001Z 18002KT 16/12 A302 RMK A01 T01620121  RH  077%=      5-min Rain = 0
KCR1 101002Z 18002KT 16/12 A302 RMK A01 T01610120  RH  077%=      5-min Rain = 0
KCR1 101003Z 18003KT 16/12 A302 RMK A01 T01620121  RH  077%=      5-min Rain = 0
KCR1 101004Z 18003KT 16/12 A302 RMK A01 T01610120  RH  077%=      5-min Rain = 0
KCR1 101005Z 18003KT 16/12 A302 RMK A01 T01600120  RH  077%=      5-min Rain = 0
KCR1 101006Z 18002KT 16/12 A302 RMK A01 T01590120  RH  077%=      5-min Rain = 0
KCR1 101007Z 19002KT 16/12 A302 RMK A01 T01590119  RH  077%=      5-min Rain = 0
KCR1 101008Z 18002KT 16/12 A302 RMK A01 T01590120  RH  078%=      5-min Rain = 0
KCR1 101009Z 18002KT 16/12 A302 RMK A01 T01580120  RH  078%=      5-min Rain = 0
KCR1 101010Z 18002KT 16/12 A302 RMK A01 T01580119  RH  078%=      5-min Rain = 0
KCR1 101011Z 17001KT 16/12 A302 RMK A01 T01570119  RH  078%=      5-min Rain = 0
KCR1 101012Z 17001KT 16/12 A302 RMK A01 T01560119  RH  079%=      5-min Rain = 0
KCR1 101013Z 17001KT 16/12 A302 RMK A01 T01550120  RH  080%=      5-min Rain = 0
KCR1 101014Z 17002KT 16/12 A302 RMK A01 T01550121  RH  080%=      5-min Rain = 0
KCR1 101015Z 17002KT 15/12 A302 RMK A01 T01540121  RH  080%=      5-min Rain = 0
KCR1 101016Z 18002KT 15/12 A302 RMK A01 T01540121  RH  081%=      5-min Rain = 0
KCR1 101017Z 18002KT 16/12 A3019 RMK A01 T01550121  RH  080%=      5-min Rain = 0
KCR1 101018Z 19002KT 16/12 A3019 RMK A01 T01560121  RH  080%=      5-min Rain = 0
KCR1 101019Z 19003KT 16/12 A3019 RMK A01 T01560121  RH  079%=      5-min Rain = 0
KCR1 101020Z 18002KT 16/12 A3019 RMK A01 T01570121  RH  079%=      5-min Rain = 0
KCR1 101021Z 18002KT 16/12 A3019 RMK A01 T01570121  RH  079%=      5-min Rain = 0
KCR1 101022Z 18002KT 16/12 A302 RMK A01 T01570120  RH  079%=      5-min Rain = 0
KCR1 101023Z 19002KT 16/12 A302 RMK A01 T01580120  RH  079%=      5-min Rain = 0
KCR1 101024Z 20002KT 16/12 A302 RMK A01 T01580121  RH  078%=      5-min Rain = 0
KCR1 101025Z 21002KT 16/12 A302 RMK A01 T01590121  RH  078%=      5-min Rain = 0
KCR1 101026Z 21002KT 16/12 A302 RMK A01 T01590121  RH  078%=      5-min Rain = 0
KCR1 101027Z 21002KT 16/12 A302 RMK A01 T01600121  RH  078%=      5-min Rain = 0
KCR1 101028Z 21002KT 16/12 A302 RMK A01 T01600122  RH  078%=      5-min Rain = 0
KCR1 101029Z 22002KT 16/12 A302 RMK A01 T01610122  RH  078%=      5-min Rain = 0
KCR1 101030Z 22002KT 16/12 A302 RMK A01 T01610121  RH  077%=      5-min Rain = 0
KCR1 101031Z 22002KT 16/12 A302 RMK A01 T01610121  RH  077%=      5-min Rain = 0
KCR1 101032Z 22002KT 16/12 A302 RMK A01 T01610121  RH  077%=      5-min Rain = 0
KCR1 101033Z 22002KT 16/12 A302 RMK A01 T01610121  RH  077%=      5-min Rain = 0
KCR1 101034Z 22002KT 16/12 A302 RMK A01 T01610121  RH  078%=      5-min Rain = 0
KCR1 101035Z 22002KT 16/12 A302 RMK A01 T01600121  RH  078%=      5-min Rain = 0
KCR1 101036Z 21002KT 16/12 A302 RMK A01 T01610121  RH  078%=      5-min Rain = 0
KCR1 101037Z 20002KT 16/12 A302 RMK A01 T01600121  RH  078%=      5-min Rain = 0
KCR1 101038Z 20002KT 16/12 A302 RMK A01 T01600121  RH  078%=      5-min Rain = 0
KCR1 101039Z 20002KT 16/12 A302 RMK A01 T01600121  RH  078%=      5-min Rain = 0
KCR1 101040Z 20002KT 16/12 A302 RMK A01 T01590121  RH  078%=      5-min Rain = 0
KCR1 101041Z 20002KT 16/12 A302 RMK A01 T01590121  RH  078%=      5-min Rain = 0
KCR1 101042Z 20002KT 16/12 A302 RMK A01 T01590121  RH  078%=      5-min Rain = 0
KCR1 101043Z 20002KT 16/12 A302 RMK A01 T01580121  RH  078%=      5-min Rain = 0
KCR1 101044Z 20001KT 16/12 A302 RMK A01 T01580121  RH  079%=      5-min Rain = 0
KCR1 101045Z 20001KT 16/12 A3021 RMK A01 T01580121  RH  079%=      5-min Rain = 0
KCR1 101046Z 20001KT 16/12 A3021 RMK A01 T01570121  RH  079%=      5-min Rain = 0
KCR1 101047Z 20000KT 16/12 A3021 RMK A01 T01570121  RH  079%=      5-min Rain = 0
KCR1 101048Z 00000KT 16/12 A3021 RMK A01 T01570121  RH  080%=      5-min Rain = 0
KCR1 101049Z 00000KT 16/12 A3021 RMK A01 T01570121  RH  079%=      5-min Rain = 0
KCR1 101050Z 00000KT 16/12 A3021 RMK A01 T01570120  RH  078%=      5-min Rain = 0
KCR1 101051Z 00000KT 16/12 A3021 RMK A01 T01580119  RH  078%=      5-min Rain = 0
KCR1 101052Z 00000KT 16/12 A3021 RMK A01 T01580119  RH  077%=      5-min Rain = 0
KCR1 101053Z 00000KT 16/12 A3021 RMK A01 T01580119  RH  078%=      5-min Rain = 0
KCR1 101054Z 00000KT 16/12 A3021 RMK A01 T01580119  RH  078%=      5-min Rain = 0
KCR1 101055Z 00000KT 16/12 A3021 RMK A01 T01580119  RH  077%=      5-min Rain = 0
KCR1 101056Z 00000KT 16/12 A3021 RMK A01 T01580119  RH  078%=      5-min Rain = 0
KCR1 101057Z 31000KT 16/12 A3021 RMK A01 T01580119  RH  078%=      5-min Rain = 0
KCR1 101058Z 31001KT 16/12 A3021 RMK A01 T01580119  RH  078%=      5-min Rain = 0
KCR1 101059Z 32001KT 16/12 A3021 RMK A01 T01560119  RH  078%=      5-min Rain = 0
KCR1 101100Z 33001KT 16/12 A3021 RMK A01 T01550119  RH  079%=      5-min Rain = 0
KCR1 101101Z 33001KT 15/12 A3021 RMK A01 T01540119  RH  080%=      5-min Rain = 0
KCR1 101102Z 33001KT 15/12 A3021 RMK A01 T01530119  RH  080%=      5-min Rain = 0
KCR1 101103Z 33001KT 15/12 A3021 RMK A01 T01520118  RH  080%=      5-min Rain = 0
KCR1 101104Z 33000KT 15/12 A3021 RMK A01 T01520118  RH  080%=      5-min Rain = 0
KCR1 101105Z 33000KT 15/12 A3021 RMK A01 T01520119  RH  081%=      5-min Rain = 0
KCR1 101106Z 29001KT 15/12 A3021 RMK A01 T01520119  RH  081%=      5-min Rain = 0
KCR1 101107Z 28001KT 15/12 A3021 RMK A01 T01520120  RH  081%=      5-min Rain = 0
KCR1 101108Z 29001KT 15/12 A3021 RMK A01 T01520120  RH  081%=      5-min Rain = 0
KCR1 101109Z 29001KT 15/12 A3022 RMK A01 T01520120  RH  081%=      5-min Rain = 0
KCR1 101110Z 29000KT 15/12 A3022 RMK A01 T01520120  RH  081%=      5-min Rain = 0
KCR1 101111Z 00000KT 15/12 A3022 RMK A01 T01520121  RH  081%=      5-min Rain = 0
KCR1 101112Z 00000KT 15/12 A3022 RMK A01 T01520120  RH  081%=      5-min Rain = 0
KCR1 101113Z 00000KT 15/12 A3022 RMK A01 T01520120  RH  081%=      5-min Rain = 0
KCR1 101114Z 00000KT 15/12 A3022 RMK A01 T01510120  RH  081%=      5-min Rain = 0
KCR1 101115Z 00000KT 15/12 A3022 RMK A01 T01510119  RH  081%=      5-min Rain = 0
KCR1 101116Z 00000KT 15/12 A3022 RMK A01 T01510119  RH  081%=      5-min Rain = 0
KCR1 101117Z 34000KT 15/12 A3022 RMK A01 T01510119  RH  081%=      5-min Rain = 0
KCR1 101118Z 34001KT 15/12 A3022 RMK A01 T01500118  RH  081%=      5-min Rain = 0
KCR1 101119Z 34001KT 15/12 A3022 RMK A01 T01500118  RH  081%=      5-min Rain = 0
KCR1 101120Z 34001KT 15/12 A3022 RMK A01 T01500118  RH  081%=      5-min Rain = 0
KCR1 101121Z 34001KT 15/12 A3022 RMK A01 T01500118  RH  081%=      5-min Rain = 0
KCR1 101122Z 35002KT 15/12 A3022 RMK A01 T01500118  RH  081%=      5-min Rain = 0
KCR1 101123Z 35002KT 15/12 A3022 RMK A01 T01500117  RH  081%=      5-min Rain = 0
KCR1 101124Z 00002KT 15/12 A3022 RMK A01 T01490117  RH  081%=      5-min Rain = 0
KCR1 101125Z 00003KT 15/12 A3022 RMK A01 T01490117  RH  081%=      5-min Rain = 0
KCR1 101126Z 35003KT 15/12 A3022 RMK A01 T01490117  RH  081%=      5-min Rain = 0
KCR1 101127Z 35003KT 15/12 A3022 RMK A01 T01490117  RH  081%=      5-min Rain = 0
KCR1 101128Z 34003KT 15/12 A3022 RMK A01 T01490117  RH  081%=      5-min Rain = 0
KCR1 101129Z 34003KT 15/12 A3022 RMK A01 T01490117  RH  081%=      5-min Rain = 0
KCR1 101130Z 35004KT 15/12 A3022 RMK A01 T01490118  RH  081%=      5-min Rain = 0
KCR1 101131Z 35004KT 15/12 A3022 RMK A01 T01490117  RH  081%=      5-min Rain = 0
KCR1 101132Z 35004KT 15/12 A3022 RMK A01 T01490117  RH  081%=      5-min Rain = 0
KCR1 101133Z 35004KT 15/12 A3022 RMK A01 T01490117  RH  081%=      5-min Rain = 0
KCR1 101134Z 35004KT 15/12 A3022 RMK A01 T01490117  RH  081%=      5-min Rain = 0
KCR1 101135Z 35003KT 15/12 A3022 RMK A01 T01480117  RH  082%=      5-min Rain = 0
KCR1 101136Z 35003KT 15/12 A3022 RMK A01 T01480117  RH  082%=      5-min Rain = 0
KCR1 101137Z 34003KT 15/12 A3022 RMK A01 T01470117  RH  082%=      5-min Rain = 0
KCR1 101138Z 34003KT 15/12 A3022 RMK A01 T01470117  RH  082%=      5-min Rain = 0
KCR1 101139Z 34003KT 15/12 A3022 RMK A01 T01470117  RH  082%=      5-min Rain = 0
KCR1 101140Z 34003KT 15/12 A3022 RMK A01 T01470117  RH  082%=      5-min Rain = 0
KCR1 101141Z 34003KT 15/12 A3022 RMK A01 T01470118  RH  083%=      5-min Rain = 0
KCR1 101142Z 34003KT 15/12 A3023 RMK A01 T01460117  RH  083%=      5-min Rain = 0
KCR1 101143Z 34003KT 15/12 A3023 RMK A01 T01460117  RH  083%=      5-min Rain = 0
KCR1 101144Z 34003KT 15/12 A3023 RMK A01 T01460118  RH  083%=      5-min Rain = 0
KCR1 101145Z 35004KT 15/12 A3023 RMK A01 T01460117  RH  083%=      5-min Rain = 0
KCR1 101146Z 35004KT 15/12 A3023 RMK A01 T01460117  RH  083%=      5-min Rain = 0
KCR1 101147Z 36004KT 15/12 A3023 RMK A01 T01470117  RH  083%=      5-min Rain = 0
KCR1 101148Z 35004KT 15/12 A3023 RMK A01 T01460118  RH  083%=      5-min Rain = 0
KCR1 101149Z 35004KT 15/12 A3023 RMK A01 T01460117  RH  083%=      5-min Rain = 0
KCR1 101150Z 36004KT 15/12 A3023 RMK A01 T01470117  RH  082%=      5-min Rain = 0
KCR1 101151Z 00004KT 15/12 A3023 RMK A01 T01470117  RH  082%=      5-min Rain = 0
KCR1 101152Z 00004KT 15/12 A3023 RMK A01 T01470118  RH  083%=      5-min Rain = 0
KCR1 101153Z 00004KT 15/12 A3023 RMK A01 T01470117  RH  083%=      5-min Rain = 0
KCR1 101154Z 00004KT 15/12 A3023 RMK A01 T01470118  RH  083%=      5-min Rain = 0
KCR1 101155Z 00004KT 15/12 A3023 RMK A01 T01470118  RH  083%=      5-min Rain = 0
KCR1 101156Z 00004KT 15/12 A3023 RMK A01 T01470118  RH  083%=      5-min Rain = 0
KCR1 101157Z 01004KT 15/12 A3023 RMK A01 T01470117  RH  082%=      5-min Rain = 0
KCR1 101158Z 01004KT 15/12 A3023 RMK A01 T01470117  RH  082%=      5-min Rain = 0
KCR1 101159Z 01004KT 15/12 A3023 RMK A01 T01470117  RH  082%=      5-min Rain = 0
KCR1 101200Z 01004KT 15/12 A3023 RMK A01 T01470117  RH  082%=      5-min Rain = 0
KCR1 101201Z 02004KT 15/12 A3024 RMK A01 T01470117  RH  082%=      5-min Rain = 0
KCR1 101202Z 02004KT 15/12 A3024 RMK A01 T01470117  RH  082%=      5-min Rain = 0
KCR1 101203Z 02004KT 15/12 A3024 RMK A01 T01470117  RH  082%=      5-min Rain = 0
KCR1 101204Z 02004KT 15/12 A3024 RMK A01 T01470117  RH  082%=      5-min Rain = 0
KCR1 101205Z 03004KT 15/12 A3024 RMK A01 T01470117  RH  082%=      5-min Rain = 0
KCR1 101206Z 03004KT 15/12 A3024 RMK A01 T01470117  RH  082%=      5-min Rain = 0
KCR1 101207Z 03004KT 15/12 A3024 RMK A01 T01470117  RH  083%=      5-min Rain = 0
KCR1 101208Z 03004KT 15/12 A3024 RMK A01 T01470118  RH  083%=      5-min Rain = 0
KCR1 101209Z 03004KT 15/12 A3024 RMK A01 T01470117  RH  082%=      5-min Rain = 0
KCR1 101210Z 03004KT 15/12 A3024 RMK A01 T01470117  RH  082%=      5-min Rain = 0
KCR1 101211Z 03004KT 15/12 A3024 RMK A01 T01470117  RH  082%=      5-min Rain = 0
KCR1 101212Z 03003KT 15/12 A3024 RMK A01 T01470118  RH  082%=      5-min Rain = 0
KCR1 101213Z 03004KT 15/12 A3024 RMK A01 T01470118  RH  082%=      5-min Rain = 0
KCR1 101214Z 03004KT 15/12 A3024 RMK A01 T01470118  RH  082%=      5-min Rain = 0
KCR1 101215Z 03004KT 15/12 A3024 RMK A01 T01470117  RH  082%=      5-min Rain = 0
KCR1 101216Z 03004KT 15/12 A3024 RMK A01 T01470117  RH  082%=      5-min Rain = 0
KCR1 101217Z 03004KT 15/12 A3024 RMK A01 T01470117  RH  082%=      5-min Rain = 0
KCR1 101218Z 03005KT 15/12 A3024 RMK A01 T01460116  RH  082%=      5-min Rain = 0
KCR1 101219Z 03005KT 15/12 A3024 RMK A01 T01460116  RH  082%=      5-min Rain = 0
KCR1 101220Z 03004KT 15/12 A3024 RMK A01 T01460116  RH  082%=      5-min Rain = 0
KCR1 101221Z 03004KT 15/12 A3024 RMK A01 T01450116  RH  083%=      5-min Rain = 0
KCR1 101222Z 03004KT 15/12 A3024 RMK A01 T01450116  RH  083%=      5-min Rain = 0
KCR1 101223Z 03004KT 15/12 A3024 RMK A01 T01450116  RH  083%=      5-min Rain = 0
KCR1 101224Z 03004KT 14/12 A3024 RMK A01 T01440116  RH  083%=      5-min Rain = 0
KCR1 101225Z 03003KT 15/12 A3024 RMK A01 T01450116  RH  083%=      5-min Rain = 0
KCR1 101226Z 03004KT 15/12 A3024 RMK A01 T01450116  RH  083%=      5-min Rain = 0
KCR1 101227Z 03004KT 14/12 A3024 RMK A01 T01440116  RH  083%=      5-min Rain = 0
KCR1 101228Z 03004KT 15/12 A3024 RMK A01 T01450116  RH  083%=      5-min Rain = 0
KCR1 101229Z 04004KT 15/12 A3024 RMK A01 T01450116  RH  083%=      5-min Rain = 0
KCR1 101230Z 04004KT 15/12 A3024 RMK A01 T01450116  RH  083%=      5-min Rain = 0
KCR1 101231Z 04004KT 15/12 A3024 RMK A01 T01450117  RH  083%=      5-min Rain = 0
KCR1 101232Z 04004KT 15/12 A3024 RMK A01 T01450117  RH  083%=      5-min Rain = 0
KCR1 101233Z 04004KT 15/12 A3024 RMK A01 T01460117  RH  083%=      5-min Rain = 0
KCR1 101234Z 04004KT 15/12 A3024 RMK A01 T01460117  RH  083%=      5-min Rain = 0
KCR1 101235Z 04004KT 15/12 A3024 RMK A01 T01460117  RH  082%=      5-min Rain = 0
KCR1 101236Z 04004KT 15/12 A3024 RMK A01 T01460116  RH  082%=      5-min Rain = 0
KCR1 101237Z 05004KT 15/12 A3024 RMK A01 T01460116  RH  082%=      5-min Rain = 0
KCR1 101238Z 04004KT 15/12 A3024 RMK A01 T01460116  RH  082%=      5-min Rain = 0
KCR1 101239Z 04004KT 15/12 A3024 RMK A01 T01470117  RH  082%=      5-min Rain = 0
KCR1 101240Z 04004KT 15/12 A3025 RMK A01 T01460117  RH  082%=      5-min Rain = 0
KCR1 101241Z 04004KT 15/12 A3025 RMK A01 T01470117  RH  082%=      5-min Rain = 0
KCR1 101242Z 04004KT 15/12 A3025 RMK A01 T01470117  RH  082%=      5-min Rain = 0
KCR1 101243Z 04004KT 15/12 A3025 RMK A01 T01470118  RH  083%=      5-min Rain = 0
KCR1 101244Z 04003KT 15/12 A3025 RMK A01 T01470118  RH  082%=      5-min Rain = 0
KCR1 101245Z 04003KT 15/12 A3025 RMK A01 T01480118  RH  082%=      5-min Rain = 0
KCR1 101246Z 04003KT 15/12 A3025 RMK A01 T01490119  RH  082%=      5-min Rain = 0
KCR1 101247Z 04003KT 15/12 A3025 RMK A01 T01490119  RH  082%=      5-min Rain = 0
KCR1 101248Z 04003KT 15/12 A3025 RMK A01 T01500119  RH  082%=      5-min Rain = 0
KCR1 101249Z 04003KT 15/12 A3025 RMK A01 T01500119  RH  082%=      5-min Rain = 0
KCR1 101250Z 04003KT 15/12 A3025 RMK A01 T01510119  RH  081%=      5-min Rain = 0
KCR1 101251Z 04003KT 15/12 A3025 RMK A01 T01510119  RH  081%=      5-min Rain = 0
KCR1 101252Z 04003KT 15/12 A3025 RMK A01 T01520120  RH  081%=      5-min Rain = 0
KCR1 101253Z 05003KT 15/12 A3025 RMK A01 T01520120  RH  081%=      5-min Rain = 0
KCR1 101254Z 05004KT 15/12 A3025 RMK A01 T01530121  RH  081%=      5-min Rain = 0
KCR1 101255Z 05003KT 15/12 A3025 RMK A01 T01530121  RH  081%=      5-min Rain = 0
KCR1 101256Z 05003KT 15/12 A3025 RMK A01 T01530122  RH  081%=      5-min Rain = 0
KCR1 101257Z 06004KT 15/12 A3025 RMK A01 T01540122  RH  081%=      5-min Rain = 0
KCR1 101258Z 06004KT 15/12 A3025 RMK A01 T01540122  RH  081%=      5-min Rain = 0
KCR1 101259Z 06004KT 16/12 A3025 RMK A01 T01550123  RH  081%=      5-min Rain = 0
KCR1 101300Z 06004KT 16/12 A3025 RMK A01 T01550123  RH  081%=      5-min Rain = 0
KCR1 101301Z 06004KT 16/12 A3025 RMK A01 T01560124  RH  081%=      5-min Rain = 0
KCR1 101302Z 06004KT 16/12 A3025 RMK A01 T01570124  RH  081%=      5-min Rain = 0
KCR1 101303Z 06003KT 16/12 A3025 RMK A01 T01570124  RH  081%=      5-min Rain = 0
KCR1 101304Z 06003KT 16/12 A3025 RMK A01 T01570124  RH  080%=      5-min Rain = 0
KCR1 101305Z 06003KT 16/12 A3025 RMK A01 T01580124  RH  080%=      5-min Rain = 0
KCR1 101306Z 07003KT 16/12 A3025 RMK A01 T01580124  RH  080%=      5-min Rain = 0
KCR1 101307Z 07003KT 16/13 A3025 RMK A01 T01580125  RH  080%=      5-min Rain = 0
KCR1 101308Z 06004KT 16/13 A3025 RMK A01 T01590125  RH  081%=      5-min Rain = 0
KCR1 101309Z 06004KT 16/13 A3025 RMK A01 T01580125  RH  081%=      5-min Rain = 0
KCR1 101310Z 06004KT 16/13 A3025 RMK A01 T01580125  RH  081%=      5-min Rain = 0
KCR1 101311Z 06004KT 16/13 A3025 RMK A01 T01590126  RH  081%=      5-min Rain = 0
KCR1 101312Z 07004KT 16/13 A3025 RMK A01 T01590126  RH  081%=      5-min Rain = 0
KCR1 101313Z 06003KT 16/13 A3025 RMK A01 T01590125  RH  080%=      5-min Rain = 0
KCR1 101314Z 07003KT 16/13 A3025 RMK A01 T01590125  RH  080%=      5-min Rain = 0
KCR1 101315Z 07003KT 16/13 A3025 RMK A01 T01590126  RH  081%=      5-min Rain = 0
KCR1 101316Z 07003KT 16/13 A3025 RMK A01 T01590128  RH  081%=      5-min Rain = 0
KCR1 101317Z 07003KT 16/13 A3025 RMK A01 T01600127  RH  081%=      5-min Rain = 0
KCR1 101318Z 07003KT 16/13 A3025 RMK A01 T01600127  RH  081%=      5-min Rain = 0
KCR1 101319Z 07003KT 16/13 A3025 RMK A01 T01610127  RH  081%=      5-min Rain = 0
KCR1 101320Z 07003KT 16/13 A3025 RMK A01 T01610128  RH  081%=      5-min Rain = 0
KCR1 101321Z 07002KT 16/13 A3025 RMK A01 T01610128  RH  081%=      5-min Rain = 0
KCR1 101322Z 07002KT 16/13 A3025 RMK A01 T01620129  RH  081%=      5-min Rain = 0
KCR1 101323Z 07003KT 16/13 A3025 RMK A01 T01620127  RH  080%=      5-min Rain = 0
KCR1 101324Z 07003KT 16/13 A3025 RMK A01 T01620127  RH  080%=      5-min Rain = 0
KCR1 101325Z 07003KT 16/13 A3025 RMK A01 T01630127  RH  079%=      5-min Rain = 0
KCR1 101326Z 07003KT 16/13 A3025 RMK A01 T01630128  RH  080%=      5-min Rain = 0
KCR1 101327Z 08003KT 16/13 A3025 RMK A01 T01640128  RH  080%=      5-min Rain = 0
KCR1 101328Z 08003KT 16/13 A3025 RMK A01 T01640128  RH  079%=      5-min Rain = 0
KCR1 101329Z 08003KT 16/13 A3025 RMK A01 T01640129  RH  080%=      5-min Rain = 0
KCR1 101330Z 09003KT 17/13 A3025 RMK A01 T01650130  RH  080%=      5-min Rain = 0
KCR1 101331Z 09003KT 17/13 A3025 RMK A01 T01660130  RH  079%=      5-min Rain = 0
KCR1 101332Z 09003KT 17/13 A3025 RMK A01 T01670131  RH  079%=      5-min Rain = 0
KCR1 101333Z 10003KT 17/13 A3025 RMK A01 T01680131  RH  079%=      5-min Rain = 0
KCR1 101334Z 10003KT 17/13 A3025 RMK A01 T01700130  RH  078%=      5-min Rain = 0
KCR1 101335Z 09002KT 17/13 A3025 RMK A01 T01700130  RH  077%=      5-min Rain = 0
KCR1 101336Z 10003KT 17/13 A3025 RMK A01 T01710130  RH  077%=      5-min Rain = 0
KCR1 101337Z 09003KT 17/13 A3025 RMK A01 T01720130  RH  076%=      5-min Rain = 0
KCR1 101338Z 10003KT 17/13 A3025 RMK A01 T01730130  RH  076%=      5-min Rain = 0
KCR1 101339Z 10002KT 17/13 A3025 RMK A01 T01740130  RH  075%=      5-min Rain = 0
KCR1 101340Z 09002KT 18/13 A3025 RMK A01 T01760131  RH  075%=      5-min Rain = 0
KCR1 101341Z 09002KT 18/13 A3025 RMK A01 T01770133  RH  075%=      5-min Rain = 0
KCR1 101342Z 09002KT 18/13 A3025 RMK A01 T01790134  RH  075%=      5-min Rain = 0
KCR1 101343Z 08002KT 18/14 A3025 RMK A01 T01800135  RH  075%=      5-min Rain = 0
KCR1 101344Z 07003KT 18/13 A3025 RMK A01 T01820134  RH  074%=      5-min Rain = 0
KCR1 101345Z 07003KT 18/13 A3026 RMK A01 T01820132  RH  072%=      5-min Rain = 0
KCR1 101346Z 07003KT 18/13 A3026 RMK A01 T01830132  RH  072%=      5-min Rain = 0
KCR1 101347Z 07003KT 18/13 A3026 RMK A01 T01830132  RH  072%=      5-min Rain = 0
KCR1 101348Z 07003KT 18/13 A3026 RMK A01 T01830131  RH  071%=      5-min Rain = 0
KCR1 101349Z 07004KT 18/13 A3026 RMK A01 T01840133  RH  072%=      5-min Rain = 0
KCR1 101350Z 07003KT 18/13 A3026 RMK A01 T01840132  RH  071%=      5-min Rain = 0
KCR1 101351Z 08004KT 19/13 A3026 RMK A01 T01850132  RH  071%=      5-min Rain = 0
KCR1 101352Z 09004KT 19/13 A3026 RMK A01 T01850131  RH  071%=      5-min Rain = 0
KCR1 101353Z 08004KT 19/13 A3026 RMK A01 T01850131  RH  070%=      5-min Rain = 0
KCR1 101354Z 08004KT 19/13 A3026 RMK A01 T01860132  RH  071%=      5-min Rain = 0
KCR1 101355Z 09003KT 19/13 A3026 RMK A01 T01870133  RH  071%=      5-min Rain = 0
KCR1 101356Z 08003KT 19/13 A3026 RMK A01 T01880132  RH  070%=      5-min Rain = 0
KCR1 101357Z 08004KT 19/13 A3026 RMK A01 T01890132  RH  069%=      5-min Rain = 0
KCR1 101358Z 08004KT 19/13 A3026 RMK A01 T01890130  RH  069%=      5-min Rain = 0
KCR1 101359Z 09004KT 19/13 A3026 RMK A01 T01890129  RH  068%=      5-min Rain = 0
KCR1 101400Z 09004KT 19/13 A3026 RMK A01 T01890130  RH  068%=      5-min Rain = 0
KCR1 101401Z 09003KT 19/13 A3026 RMK A01 T01900130  RH  068%=      5-min Rain = 0
KCR1 101402Z 08003KT 19/13 A3026 RMK A01 T01910132  RH  068%=      5-min Rain = 0
KCR1 101403Z 08003KT 19/13 A3026 RMK A01 T01930132  RH  068%=      5-min Rain = 0
KCR1 101404Z 08004KT 19/13 A3026 RMK A01 T01940131  RH  067%=      5-min Rain = 0
KCR1 101405Z 09003KT 19/13 A3026 RMK A01 T01940131  RH  067%=      5-min Rain = 0
KCR1 101406Z 09004KT 20/13 A3026 RMK A01 T01950130  RH  066%=      5-min Rain = 0
KCR1 101407Z 09004KT 20/13 A3026 RMK A01 T01950131  RH  066%=      5-min Rain = 0
KCR1 101408Z 09003KT 20/13 A3026 RMK A01 T01950130  RH  066%=      5-min Rain = 0
KCR1 101409Z 09003KT 20/13 A3026 RMK A01 T01950131  RH  066%=      5-min Rain = 0
KCR1 101410Z 10003KT 20/13 A3026 RMK A01 T01960129  RH  065%=      5-min Rain = 0
KCR1 101411Z 11003KT 20/13 A3026 RMK A01 T01960130  RH  065%=      5-min Rain = 0
KCR1 101412Z 11003KT 20/13 A3026 RMK A01 T01970130  RH  065%=      5-min Rain = 0
KCR1 101413Z 11004KT 20/13 A3026 RMK A01 T01980129  RH  064%=      5-min Rain = 0
KCR1 101414Z 11003KT 20/13 A3026 RMK A01 T01990126  RH  063%=      5-min Rain = 0
KCR1 101415Z 10002KT 20/13 A3026 RMK A01 T01990127  RH  063%=      5-min Rain = 0
KCR1 101421Z 10003KT 20/13 A3026 RMK A01 T02020128  RH  062%=      5-min Rain = 0
KCR1 101422Z 10002KT 20/13 A3026 RMK A01 T02020128  RH  062%=      5-min Rain = 0
KCR1 101423Z 10003KT 20/13 A3026 RMK A01 T02020129  RH  063%=      5-min Rain = 0
KCR1 101424Z 11004KT 20/13 A3026 RMK A01 T02030128  RH  062%=      5-min Rain = 0
KCR1 101425Z 12003KT 20/13 A3026 RMK A01 T02030129  RH  062%=      5-min Rain = 0
KCR1 101426Z 12003KT 20/13 A3026 RMK A01 T02040129  RH  062%=      5-min Rain = 0
KCR1 101427Z 14003KT 21/13 A3026 RMK A01 T02050129  RH  062%=      5-min Rain = 0
KCR1 101428Z 16003KT 21/13 A3026 RMK A01 T02060129  RH  061%=      5-min Rain = 0
KCR1 101429Z 16002KT 21/13 A3026 RMK A01 T02060127  RH  060%=      5-min Rain = 0
KCR1 101430Z 15003KT 21/13 A3026 RMK A01 T02070128  RH  061%=      5-min Rain = 0
KCR1 101431Z 15004KT 21/13 A3026 RMK A01 T02070130  RH  061%=      5-min Rain = 0
KCR1 101432Z 13005KT 21/13 A3026 RMK A01 T02080128  RH  060%=      5-min Rain = 0
KCR1 101433Z 17005KT 21/13 A3026 RMK A01 T02070129  RH  061%=      5-min Rain = 0
KCR1 101434Z 18003KT 21/13 A3026 RMK A01 T02080128  RH  060%=      5-min Rain = 0
KCR1 101435Z 18003KT 21/13 A3026 RMK A01 T02080128  RH  060%=      5-min Rain = 0
KCR1 101436Z 18003KT 21/13 A3026 RMK A01 T02080130  RH  061%=      5-min Rain = 0
KCR1 101437Z 13002KT 21/13 A3026 RMK A01 T02090130  RH  061%=      5-min Rain = 0
KCR1 101438Z 12003KT 21/13 A3026 RMK A01 T02090130  RH  060%=      5-min Rain = 0
KCR1 101439Z 14004KT 21/13 A3026 RMK A01 T02100130  RH  060%=      5-min Rain = 0
KCR1 101440Z 16004KT 21/13 A3026 RMK A01 T02100129  RH  060%=      5-min Rain = 0
KCR1 101441Z 15004KT 21/13 A3026 RMK A01 T02110129  RH  060%=      5-min Rain = 0
KCR1 101442Z 15005KT 21/13 A3026 RMK A01 T02110131  RH  060%=      5-min Rain = 0
KCR1 101443Z 15004KT 21/13 A3026 RMK A01 T02130131  RH  060%=      5-min Rain = 0
KCR1 101444Z 16003KT 22/13 A3026 RMK A01 T02150130  RH  059%=      5-min Rain = 0
KCR1 101445Z 15002KT 21/13 A3026 RMK A01 T02140130  RH  058%=      5-min Rain = 0
KCR1 101446Z 14004KT 22/13 A3026 RMK A01 T02150131  RH  059%=      5-min Rain = 0
KCR1 101447Z 15003KT 22/13 A3026 RMK A01 T02160130  RH  058%=      5-min Rain = 0
KCR1 101448Z 20005KT 22/13 A3026 RMK A01 T02170132  RH  058%=      5-min Rain = 0
KCR1 101449Z 19006KT 22/13 A3026 RMK A01 T02180130  RH  057%=      5-min Rain = 0
KCR1 101450Z 16005KT 22/13 A3026 RMK A01 T02170132  RH  058%=      5-min Rain = 0
KCR1 101451Z 16005KT 22/13 A3026 RMK A01 T02180131  RH  058%=      5-min Rain = 0
KCR1 101452Z 16007KT 22/13 A3026 RMK A01 T02190132  RH  058%=      5-min Rain = 0
KCR1 101453Z 16007KT 22/13 A3026 RMK A01 T02190131  RH  057%=      5-min Rain = 0
KCR1 101454Z 16005KT 22/13 A3026 RMK A01 T02190131  RH  057%=      5-min Rain = 0
KCR1 101455Z 15004KT 22/13 A3026 RMK A01 T02190130  RH  057%=      5-min Rain = 0
KCR1 101456Z 16006KT 22/13 A3026 RMK A01 T02190131  RH  057%=      5-min Rain = 0
KCR1 101457Z 17006KT 22/13 A3026 RMK A01 T02200131  RH  057%=      5-min Rain = 0
KCR1 101458Z 18005KT 22/13 A3026 RMK A01 T02190131  RH  057%=      5-min Rain = 0
KCR1 101459Z 17004KT 22/13 A3026 RMK A01 T02190131  RH  057%=      5-min Rain = 0
KCR1 101500Z 17004KT 22/13 A3026 RMK A01 T02190131  RH  057%=      5-min Rain = 0
KCR1 101501Z 17003KT 22/13 A3026 RMK A01 T02190133  RH  058%=      5-min Rain = 0
KCR1 101502Z 16005KT 22/13 A3026 RMK A01 T02200132  RH  057%=      5-min Rain = 0
KCR1 101503Z 15004KT 22/13 A3026 RMK A01 T02210133  RH  057%=      5-min Rain = 0
KCR1 101504Z 15004KT 22/13 A3026 RMK A01 T02220132  RH  057%=      5-min Rain = 0
KCR1 101505Z 15005KT 22/13 A3026 RMK A01 T02230132  RH  056%=      5-min Rain = 0
KCR1 101506Z 16006KT 22/13 A3026 RMK A01 T02230131  RH  056%=      5-min Rain = 0
KCR1 101507Z 15004KT 22/13 A3026 RMK A01 T02230132  RH  056%=      5-min Rain = 0
KCR1 101508Z 15004KT 22/13 A3026 RMK A01 T02230132  RH  056%=      5-min Rain = 0
KCR1 101509Z 13005KT 23/14 A3026 RMK A01 T02250135  RH  057%=      5-min Rain = 0
KCR1 101510Z 13005KT 23/13 A3027 RMK A01 T02270133  RH  055%=      5-min Rain = 0
KCR1 101511Z 14006KT 23/13 A3027 RMK A01 T02270133  RH  055%=      5-min Rain = 0
KCR1 101512Z 16006KT 23/14 A3027 RMK A01 T02270135  RH  056%=      5-min Rain = 0
KCR1 101513Z 18005KT 23/13 A3027 RMK A01 T02280132  RH  054%=      5-min Rain = 0
KCR1 101514Z 16006KT 23/13 A3027 RMK A01 T02250129  RH  055%=      5-min Rain = 0
KCR1 101515Z 14007KT 23/13 A3027 RMK A01 T02250133  RH  056%=      5-min Rain = 0
KCR1 101516Z 16006KT 23/13 A3027 RMK A01 T02260131  RH  055%=      5-min Rain = 0
KCR1 101517Z 18005KT 23/13 A3027 RMK A01 T02270132  RH  055%=      5-min Rain = 0
KCR1 101518Z 17006KT 23/13 A3027 RMK A01 T02280134  RH  056%=      5-min Rain = 0
KCR1 101519Z 17007KT 23/13 A3027 RMK A01 T02300133  RH  054%=      5-min Rain = 0
KCR1 101520Z 18008KT 23/13 A3027 RMK A01 T02310133  RH  054%=      5-min Rain = 0
KCR1 101521Z 17005KT 23/13 A3027 RMK A01 T02300130  RH  053%=      5-min Rain = 0
KCR1 101522Z 19005KT 23/13 A3027 RMK A01 T02280132  RH  054%=      5-min Rain = 0
KCR1 101523Z 18006KT 23/13 A3027 RMK A01 T02310134  RH  054%=      5-min Rain = 0
KCR1 101524Z 17006KT 23/13 A3027 RMK A01 T02320131  RH  053%=      5-min Rain = 0
KCR1 101525Z 17007KT 23/13 A3027 RMK A01 T02310133  RH  054%=      5-min Rain = 0
KCR1 101526Z 14006KT 23/13 A3027 RMK A01 T02320134  RH  054%=      5-min Rain = 0
KCR1 101527Z 16006KT 23/13 A3027 RMK A01 T02310134  RH  054%=      5-min Rain = 0
KCR1 101528Z 17007KT 23/13 A3027 RMK A01 T02320134  RH  054%=      5-min Rain = 0
KCR1 101529Z 15006KT 23/13 A3027 RMK A01 T02330134  RH  053%=      5-min Rain = 0
KCR1 101530Z 15007KT 24/13 A3027 RMK A01 T02350131  RH  052%=      5-min Rain = 0
KCR1 101531Z 15008KT 23/13 A3027 RMK A01 T02340133  RH  053%=      5-min Rain = 0
KCR1 101532Z 14008KT 23/13 A3027 RMK A01 T02340132  RH  053%=      5-min Rain = 0
KCR1 101533Z 13007KT 23/13 A3027 RMK A01 T02330131  RH  053%=      5-min Rain = 0
KCR1 101534Z 16008KT 23/13 A3027 RMK A01 T02330132  RH  053%=      5-min Rain = 0
KCR1 101535Z 17007KT 23/13 A3027 RMK A01 T02340134  RH  053%=      5-min Rain = 0
KCR1 101536Z 17008KT 24/13 A3027 RMK A01 T02360134  RH  053%=      5-min Rain = 0
KCR1 101537Z 17010KT 24/13 A3026 RMK A01 T02370132  RH  052%=      5-min Rain = 0
KCR1 101538Z 17009KT 24/13 A3026 RMK A01 T02370132  RH  052%=      5-min Rain = 0
KCR1 101539Z 16008KT 24/13 A3027 RMK A01 T02350131  RH  052%=      5-min Rain = 0
KCR1 101540Z 17008KT 23/13 A3026 RMK A01 T02330131  RH  053%=      5-min Rain = 0
KCR1 101541Z 18008KT 23/13 A3027 RMK A01 T02330131  RH  053%=      5-min Rain = 0
KCR1 101542Z 16007KT 23/13 A3027 RMK A01 T02330132  RH  053%=      5-min Rain = 0
KCR1 101543Z 17006KT 23/13 A3027 RMK A01 T02330132  RH  053%=      5-min Rain = 0
KCR1 101544Z 17008KT 23/13 A3027 RMK A01 T02340133  RH  053%=      5-min Rain = 0
KCR1 101545Z 18008KT 24/13 A3027 RMK A01 T02350132  RH  053%=      5-min Rain = 0
KCR1 101546Z 17009KT 24/13 A3027 RMK A01 T02350133  RH  053%=      5-min Rain = 0
KCR1 101547Z 17008KT 23/13 A3027 RMK A01 T02340131  RH  052%=      5-min Rain = 0
KCR1 101548Z 17006KT 23/13 A3027 RMK A01 T02320131  RH  053%=      5-min Rain = 0
KCR1 101549Z 16008KT 23/13 A3027 RMK A01 T02320132  RH  053%=      5-min Rain = 0
KCR1 101550Z 16007KT 23/13 A3027 RMK A01 T02340133  RH  053%=      5-min Rain = 0
KCR1 101551Z 18006KT 24/13 A3027 RMK A01 T02370134  RH  053%=      5-min Rain = 0
KCR1 101552Z 18005KT 24/13 A3026 RMK A01 T02380132  RH  052%=      5-min Rain = 0
KCR1 101553Z 16007KT 24/13 A3026 RMK A01 T02370134  RH  053%=      5-min Rain = 0
KCR1 101554Z 17008KT 24/13 A3026 RMK A01 T02390134  RH  052%=      5-min Rain = 0
KCR1 101555Z 17007KT 24/13 A3026 RMK A01 T02400134  RH  051%=      5-min Rain = 0
KCR1 101556Z 19005KT 24/13 A3026 RMK A01 T02400132  RH  051%=      5-min Rain = 0
KCR1 101557Z 18008KT 24/13 A3026 RMK A01 T02390133  RH  051%=      5-min Rain = 0
KCR1 101558Z 17005KT 24/13 A3026 RMK A01 T02390132  RH  051%=      5-min Rain = 0
KCR1 101559Z 19006KT 24/13 A3026 RMK A01 T02370133  RH  052%=      5-min Rain = 0
KCR1 101600Z 17005KT 24/13 A3026 RMK A01 T02380133  RH  052%=      5-min Rain = 0
KCR1 101601Z 15005KT 24/14 A3026 RMK A01 T02400136  RH  052%=      5-min Rain = 0
KCR1 101602Z 14008KT 24/14 A3026 RMK A01 T02410135  RH  051%=      5-min Rain = 0
KCR1 101603Z 14008KT 24/13 A3026 RMK A01 T02420133  RH  050%=      5-min Rain = 0
KCR1 101604Z 17007KT 24/14 A3026 RMK A01 T02420135  RH  051%=      5-min Rain = 0
KCR1 101605Z 17006KT 24/13 A3026 RMK A01 T02430133  RH  050%=      5-min Rain = 0
KCR1 101606Z 17007KT 24/14 A3026 RMK A01 T02420135  RH  051%=      5-min Rain = 0
KCR1 101607Z 17007KT 24/14 A3026 RMK A01 T02440136  RH  051%=      5-min Rain = 0
KCR1 101608Z 17006KT 25/13 A3026 RMK A01 T02470133  RH  049%=      5-min Rain = 0
KCR1 101609Z 18006KT 25/13 A3026 RMK A01 T02450133  RH  050%=      5-min Rain = 0
KCR1 101610Z 17008KT 24/13 A3026 RMK A01 T02440132  RH  050%=      5-min Rain = 0
KCR1 101611Z 17010KT 24/13 A3026 RMK A01 T02430133  RH  050%=      5-min Rain = 0
KCR1 101612Z 15007KT 24/13 A3026 RMK A01 T02440133  RH  050%=      5-min Rain = 0
KCR1 101613Z 14006KT 24/13 A3026 RMK A01 T02440133  RH  050%=      5-min Rain = 0
KCR1 101614Z 15005KT 24/13 A3026 RMK A01 T02440130  RH  049%=      5-min Rain = 0
KCR1 101615Z 16007KT 24/13 A3026 RMK A01 T02410129  RH  049%=      5-min Rain = 0
KCR1 101616Z 17006KT 24/13 A3026 RMK A01 T02410133  RH  051%=      5-min Rain = 0
KCR1 101617Z 18006KT 24/13 A3026 RMK A01 T02440133  RH  050%=      5-min Rain = 0
KCR1 101618Z 18005KT 25/13 A3026 RMK A01 T02450131  RH  049%=      5-min Rain = 0
KCR1 101619Z 16003KT 24/13 A3026 RMK A01 T02440130  RH  049%=      5-min Rain = 0
KCR1 101620Z 13004KT 24/13 A3026 RMK A01 T02440133  RH  050%=      5-min Rain = 0
KCR1 101621Z 14007KT 25/14 A3026 RMK A01 T02470137  RH  050%=      5-min Rain = 0
KCR1 101622Z 14004KT 25/14 A3026 RMK A01 T02500135  RH  049%=      5-min Rain = 0
KCR1 101623Z 16004KT 25/13 A3026 RMK A01 T02500133  RH  048%=      5-min Rain = 0
KCR1 101624Z 18005KT 25/13 A3025 RMK A01 T02500132  RH  048%=      5-min Rain = 0
KCR1 101625Z 19005KT 25/13 A3025 RMK A01 T02470130  RH  048%=      5-min Rain = 0
KCR1 101626Z 19007KT 25/13 A3025 RMK A01 T02460132  RH  049%=      5-min Rain = 0
KCR1 101627Z 19006KT 25/13 A3025 RMK A01 T02470134  RH  049%=      5-min Rain = 0
KCR1 101628Z 20006KT 25/13 A3025 RMK A01 T02490134  RH  049%=      5-min Rain = 0
KCR1 101629Z 20005KT 25/13 A3025 RMK A01 T02490133  RH  049%=      5-min Rain = 0
KCR1 101630Z 20007KT 25/14 A3025 RMK A01 T02490135  RH  049%=      5-min Rain = 0
KCR1 101631Z 20005KT 25/13 A3025 RMK A01 T02520131  RH  047%=      5-min Rain = 0
KCR1 101632Z 19004KT 25/13 A3025 RMK A01 T02500129  RH  047%=      5-min Rain = 0
KCR1 101633Z 15006KT 25/13 A3025 RMK A01 T02470132  RH  049%=      5-min Rain = 0
KCR1 101634Z 13008KT 25/13 A3025 RMK A01 T02500131  RH  048%=      5-min Rain = 0
KCR1 101635Z 12009KT 25/13 A3025 RMK A01 T02500130  RH  047%=      5-min Rain = 0
KCR1 101636Z 12006KT 25/13 A3025 RMK A01 T02510130  RH  047%=      5-min Rain = 0
KCR1 101637Z 14004KT 25/13 A3025 RMK A01 T02520129  RH  046%=      5-min Rain = 0
KCR1 101638Z 15006KT 25/13 A3025 RMK A01 T02520132  RH  047%=      5-min Rain = 0
KCR1 101639Z 14009KT 25/14 A3025 RMK A01 T02530135  RH  048%=      5-min Rain = 0
KCR1 101640Z 14011KT 26/13 A3025 RMK A01 T02550133  RH  047%=      5-min Rain = 0
KCR1 101641Z 14007KT 25/13 A3025 RMK A01 T02540133  RH  047%=      5-min Rain = 0
KCR1 101642Z 15008KT 25/13 A3025 RMK A01 T02520131  RH  047%=      5-min Rain = 0
KCR1 101643Z 16005KT 25/13 A3025 RMK A01 T02490130  RH  047%=      5-min Rain = 0
KCR1 101644Z 11007KT 25/13 A3025 RMK A01 T02480131  RH  048%=      5-min Rain = 0
KCR1 101645Z 14005KT 25/13 A3025 RMK A01 T02480128  RH  047%=      5-min Rain = 0
KCR1 101646Z 14006KT 25/13 A3025 RMK A01 T02480130  RH  048%=      5-min Rain = 0
KCR1 101647Z 16006KT 25/13 A3025 RMK A01 T02500133  RH  048%=      5-min Rain = 0
KCR1 101648Z 15007KT 25/13 A3025 RMK A01 T02510132  RH  048%=      5-min Rain = 0
KCR1 101649Z 16007KT 25/13 A3025 RMK A01 T02520133  RH  048%=      5-min Rain = 0
KCR1 101650Z 16006KT 25/13 A3025 RMK A01 T02540133  RH  047%=      5-min Rain = 0
KCR1 101651Z 16004KT 26/13 A3025 RMK A01 T02550132  RH  046%=      5-min Rain = 0
KCR1 101652Z 17003KT 25/13 A3025 RMK A01 T02540128  RH  046%=      5-min Rain = 0
KCR1 101653Z 15006KT 25/13 A3025 RMK A01 T02520130  RH  047%=      5-min Rain = 0
KCR1 101654Z 15007KT 25/13 A3025 RMK A01 T02530132  RH  047%=      5-min Rain = 0
KCR1 101655Z 13006KT 25/13 A3025 RMK A01 T02520129  RH  046%=      5-min Rain = 0
KCR1 101656Z 14008KT 25/13 A3025 RMK A01 T02530131  RH  047%=      5-min Rain = 0
KCR1 101657Z 16009KT 25/13 A3025 RMK A01 T02530131  RH  047%=      5-min Rain = 0
KCR1 101658Z 16009KT 25/13 A3025 RMK A01 T02540127  RH  045%=      5-min Rain = 0
KCR1 101659Z 19007KT 25/13 A3025 RMK A01 T02540125  RH  045%=      5-min Rain = 0
KCR1 101700Z 19006KT 25/13 A3025 RMK A01 T02530126  RH  045%=      5-min Rain = 0
KCR1 101701Z 18005KT 25/13 A3025 RMK A01 T02520129  RH  047%=      5-min Rain = 0
KCR1 101702Z 15004KT 25/13 A3025 RMK A01 T02540133  RH  047%=      5-min Rain = 0
KCR1 101703Z 16005KT 26/13 A3025 RMK A01 T02560131  RH  046%=      5-min Rain = 0
KCR1 101704Z 15009KT 26/13 A3025 RMK A01 T02560133  RH  046%=      5-min Rain = 0
KCR1 101705Z 13006KT 26/13 A3025 RMK A01 T02570129  RH  045%=      5-min Rain = 0
KCR1 101706Z 13005KT 26/13 A3025 RMK A01 T02550129  RH  045%=      5-min Rain = 0
KCR1 101707Z 13006KT 26/13 A3025 RMK A01 T02550129  RH  046%=      5-min Rain = 0
KCR1 101708Z 13008KT 25/13 A3025 RMK A01 T02540131  RH  046%=      5-min Rain = 0
KCR1 101709Z 14008KT 26/13 A3025 RMK A01 T02560129  RH  045%=      5-min Rain = 0
KCR1 101710Z 15006KT 26/13 A3025 RMK A01 T02570126  RH  044%=      5-min Rain = 0
KCR1 101711Z 14007KT 26/13 A3025 RMK A01 T02550127  RH  045%=      5-min Rain = 0
KCR1 101712Z 15007KT 26/13 A3025 RMK A01 T02550128  RH  045%=      5-min Rain = 0
KCR1 101713Z 14007KT 26/13 A3025 RMK A01 T02550130  RH  046%=      5-min Rain = 0
KCR1 101714Z 14008KT 26/13 A3025 RMK A01 T02570129  RH  045%=      5-min Rain = 0
KCR1 101715Z 14006KT 26/13 A3025 RMK A01 T02560127  RH  044%=      5-min Rain = 0
KCR1 101716Z 15006KT 25/13 A3025 RMK A01 T02540129  RH  046%=      5-min Rain = 0
KCR1 101717Z 16005KT 25/13 A3025 RMK A01 T02540128  RH  046%=      5-min Rain = 0
KCR1 101718Z 16004KT 25/13 A3025 RMK A01 T02530129  RH  046%=      5-min Rain = 0
KCR1 101719Z 18005KT 26/13 A3025 RMK A01 T02550132  RH  047%=      5-min Rain = 0
KCR1 101720Z 17005KT 26/13 A3025 RMK A01 T02570132  RH  046%=      5-min Rain = 0
KCR1 101721Z 19005KT 26/13 A3025 RMK A01 T02580130  RH  045%=      5-min Rain = 0
KCR1 101722Z 18005KT 26/13 A3024 RMK A01 T02600128  RH  044%=      5-min Rain = 0
KCR1 101723Z 18006KT 26/13 A3024 RMK A01 T02600128  RH  044%=      5-min Rain = 0
KCR1 101724Z 16005KT 26/13 A3024 RMK A01 T02600128  RH  044%=      5-min Rain = 0
KCR1 101725Z 20004KT 26/13 A3024 RMK A01 T02600129  RH  044%=      5-min Rain = 0
KCR1 101726Z 16004KT 26/13 A3024 RMK A01 T02640131  RH  044%=      5-min Rain = 0
KCR1 101727Z 11006KT 27/13 A3024 RMK A01 T02660125  RH  041%=      5-min Rain = 0
KCR1 101728Z 11008KT 27/13 A3024 RMK A01 T02660125  RH  042%=      5-min Rain = 0
KCR1 101729Z 11009KT 27/12 A3024 RMK A01 T02670124  RH  041%=      5-min Rain = 0
KCR1 101730Z 11008KT 27/12 A3024 RMK A01 T02660123  RH  041%=      5-min Rain = 0
KCR1 101731Z 13006KT 27/12 A3024 RMK A01 T02660123  RH  041%=      5-min Rain = 0
KCR1 101732Z 12004KT 26/12 A3024 RMK A01 T02640122  RH  041%=      5-min Rain = 0
KCR1 101733Z 10005KT 26/12 A3024 RMK A01 T02640123  RH  042%=      5-min Rain = 0
KCR1 101734Z 10006KT 26/12 A3024 RMK A01 T02640124  RH  042%=      5-min Rain = 0
KCR1 101735Z 12004KT 26/13 A3024 RMK A01 T02640127  RH  043%=      5-min Rain = 0
KCR1 101736Z 18008KT 27/13 A3024 RMK A01 T02660128  RH  043%=      5-min Rain = 0
KCR1 101737Z 19008KT 27/12 A3024 RMK A01 T02670124  RH  041%=      5-min Rain = 0
KCR1 101738Z 18004KT 27/12 A3024 RMK A01 T02650124  RH  041%=      5-min Rain = 0
KCR1 101739Z 22005KT 26/13 A3024 RMK A01 T02640125  RH  042%=      5-min Rain = 0
KCR1 101740Z 18005KT 26/13 A3024 RMK A01 T02640126  RH  042%=      5-min Rain = 0
KCR1 101741Z 15004KT 26/13 A3024 RMK A01 T02630126  RH  043%=      5-min Rain = 0
KCR1 101742Z 16002KT 26/12 A3024 RMK A01 T02630122  RH  041%=      5-min Rain = 0
KCR1 101743Z 17007KT 26/13 A3024 RMK A01 T02640125  RH  042%=      5-min Rain = 0
KCR1 101744Z 17009KT 27/12 A3024 RMK A01 T02650124  RH  042%=      5-min Rain = 0
KCR1 101745Z 17005KT 26/12 A3024 RMK A01 T02640124  RH  042%=      5-min Rain = 0
KCR1 101746Z 12006KT 26/12 A3024 RMK A01 T02640123  RH  042%=      5-min Rain = 0
KCR1 101747Z 13005KT 26/12 A3024 RMK A01 T02640123  RH  042%=      5-min Rain = 0
KCR1 101748Z 13007KT 27/13 A3024 RMK A01 T02660127  RH  042%=      5-min Rain = 0
KCR1 101749Z 12006KT 27/12 A3023 RMK A01 T02690123  RH  040%=      5-min Rain = 0
KCR1 101750Z 14006KT 27/13 A3023 RMK A01 T02680125  RH  041%=      5-min Rain = 0
KCR1 101751Z 15007KT 27/13 A3023 RMK A01 T02670125  RH  041%=      5-min Rain = 0
KCR1 101752Z 18005KT 26/12 A3023 RMK A01 T02640124  RH  042%=      5-min Rain = 0
KCR1 101753Z 19003KT 26/12 A3023 RMK A01 T02620123  RH  042%=      5-min Rain = 0
KCR1 101754Z 17001KT 26/12 A3023 RMK A01 T02620122  RH  042%=      5-min Rain = 0
KCR1 101755Z 23001KT 26/12 A3023 RMK A01 T02620122  RH  042%=      5-min Rain = 0
KCR1 101756Z 17004KT 27/13 A3023 RMK A01 T02650125  RH  042%=      5-min Rain = 0
KCR1 101757Z 16007KT 27/13 A3023 RMK A01 T02670128  RH  042%=      5-min Rain = 0
KCR1 101758Z 19004KT 27/13 A3023 RMK A01 T02680125  RH  041%=      5-min Rain = 0
KCR1 101759Z 24004KT 27/12 A3023 RMK A01 T02650122  RH  041%=      5-min Rain = 0
KCR1 101800Z 26003KT 26/12 A3023 RMK A01 T02630123  RH  042%=      5-min Rain = 0
KCR1 101801Z 14003KT 26/12 A3023 RMK A01 T02630123  RH  042%=      5-min Rain = 0
KCR1 101802Z 13004KT 27/13 A3023 RMK A01 T02650125  RH  042%=      5-min Rain = 0
KCR1 101803Z 15006KT 27/13 A3023 RMK A01 T02680126  RH  041%=      5-min Rain = 0
KCR1 101804Z 12007KT 27/12 A3023 RMK A01 T02700120  RH  039%=      5-min Rain = 0
KCR1 101805Z 11007KT 27/12 A3023 RMK A01 T02680120  RH  040%=      5-min Rain = 0
KCR1 101806Z 13008KT 27/12 A3023 RMK A01 T02670123  RH  041%=      5-min Rain = 0
KCR1 101807Z 13008KT 27/12 A3023 RMK A01 T02670120  RH  040%=      5-min Rain = 0
KCR1 101808Z 10003KT 27/12 A3023 RMK A01 T02660117  RH  040%=      5-min Rain = 0
KCR1 101809Z 11006KT 26/12 A3023 RMK A01 T02640118  RH  040%=      5-min Rain = 0
KCR1 101810Z 13007KT 27/12 A3022 RMK A01 T02660119  RH  040%=      5-min Rain = 0
KCR1 101811Z 15007KT 27/12 A3023 RMK A01 T02690117  RH  039%=      5-min Rain = 0
KCR1 101812Z 17007KT 27/12 A3022 RMK A01 T02700116  RH  038%=      5-min Rain = 0
KCR1 101813Z 17003KT 27/11 A3022 RMK A01 T02690114  RH  038%=      5-min Rain = 0
KCR1 101814Z 19002KT 27/11 A3022 RMK A01 T02690112  RH  038%=      5-min Rain = 0
KCR1 101815Z 14006KT 27/12 A3022 RMK A01 T02690115  RH  038%=      5-min Rain = 0
KCR1 101816Z 15006KT 27/12 A3022 RMK A01 T02690124  RH  040%=      5-min Rain = 0
KCR1 101817Z 17005KT 27/13 A3022 RMK A01 T02710125  RH  040%=      5-min Rain = 0
KCR1 101818Z 16003KT 27/12 A3022 RMK A01 T02720120  RH  039%=      5-min Rain = 0
KCR1 101819Z 14003KT 27/12 A3022 RMK A01 T02710120  RH  039%=      5-min Rain = 0
KCR1 101820Z 11001KT 27/12 A3022 RMK A01 T02710120  RH  039%=      5-min Rain = 0
KCR1 101821Z 10002KT 27/12 A3022 RMK A01 T02710121  RH  039%=      5-min Rain = 0
KCR1 101822Z 08002KT 27/12 A3022 RMK A01 T02720121  RH  039%=      5-min Rain = 0
KCR1 101823Z 07001KT 27/12 A3022 RMK A01 T02710120  RH  039%=      5-min Rain = 0
KCR1 101824Z 01001KT 27/12 A3022 RMK A01 T02700123  RH  040%=      5-min Rain = 0
KCR1 101825Z 07002KT 27/13 A3022 RMK A01 T02720126  RH  040%=      5-min Rain = 0
KCR1 101826Z 10002KT 28/13 A3022 RMK A01 T02750125  RH  039%=      5-min Rain = 0
KCR1 101827Z 21004KT 28/12 A3022 RMK A01 T02760120  RH  038%=      5-min Rain = 0
KCR1 101828Z 19004KT 28/12 A3022 RMK A01 T02770117  RH  037%=      5-min Rain = 0
KCR1 101829Z 15006G11KT 28/12 A3022 RMK A01 T02760123  RH  039%=      5-min Rain = 0
KCR1 101830Z 15009KT 28/13 A3022 RMK A01 T02780127  RH  039%=      5-min Rain = 0
KCR1 101831Z 14009KT 28/13 A3022 RMK A01 T02780126  RH  039%=      5-min Rain = 0
KCR1 101832Z 14009KT 28/13 A3022 RMK A01 T02750125  RH  039%=      5-min Rain = 0
KCR1 101833Z 16008KT 27/12 A3022 RMK A01 T02740124  RH  039%=      5-min Rain = 0
KCR1 101834Z 15006KT 27/12 A3022 RMK A01 T02730124  RH  040%=      5-min Rain = 0
KCR1 101835Z 17005KT 27/12 A3022 RMK A01 T02720124  RH  040%=      5-min Rain = 0
KCR1 101836Z 17007KT 27/12 A3022 RMK A01 T02720124  RH  040%=      5-min Rain = 0
KCR1 101837Z 18005KT 27/12 A3022 RMK A01 T02730122  RH  039%=      5-min Rain = 0
KCR1 101838Z 18005KT 27/12 A3022 RMK A01 T02740124  RH  039%=      5-min Rain = 0
KCR1 101839Z 18003KT 28/12 A3022 RMK A01 T02750120  RH  038%=      5-min Rain = 0
KCR1 101840Z 18005KT 27/12 A3022 RMK A01 T02740120  RH  038%=      5-min Rain = 0
KCR1 101841Z 15006KT 27/12 A3022 RMK A01 T02740118  RH  038%=      5-min Rain = 0
KCR1 101842Z 15004KT 28/12 A3022 RMK A01 T02750120  RH  038%=      5-min Rain = 0
KCR1 101843Z 15003KT 28/12 A3022 RMK A01 T02760117  RH  037%=      5-min Rain = 0
KCR1 101844Z 19002KT 28/12 A3021 RMK A01 T02760115  RH  037%=      5-min Rain = 0
KCR1 101845Z 12003KT 28/12 A3021 RMK A01 T02760116  RH  037%=      5-min Rain = 0
KCR1 101846Z 08002KT 28/12 A3021 RMK A01 T02760115  RH  037%=      5-min Rain = 0
KCR1 101847Z 18004KT 27/12 A3021 RMK A01 T02740117  RH  038%=      5-min Rain = 0
KCR1 101848Z 16006KT 27/12 A3021 RMK A01 T02740116  RH  037%=      5-min Rain = 0
KCR1 101849Z 15005KT 27/12 A3021 RMK A01 T02740117  RH  038%=      5-min Rain = 0
KCR1 101850Z 13004KT 28/12 A3021 RMK A01 T02760117  RH  037%=      5-min Rain = 0
KCR1 101851Z 15007KT 28/12 A3021 RMK A01 T02780121  RH  038%=      5-min Rain = 0
KCR1 101852Z 14006KT 28/12 A3021 RMK A01 T02800122  RH  038%=      5-min Rain = 0
KCR1 101853Z 13005KT 28/12 A3021 RMK A01 T02790121  RH  037%=      5-min Rain = 0
KCR1 101854Z 12006KT 28/12 A3021 RMK A01 T02750118  RH  038%=      5-min Rain = 0
KCR1 101855Z 14004KT 27/12 A3021 RMK A01 T02720115  RH  038%=      5-min Rain = 0
KCR1 101856Z 15002KT 27/12 A3021 RMK A01 T02700118  RH  039%=      5-min Rain = 0
KCR1 101857Z 06002KT 27/12 A3021 RMK A01 T02720119  RH  038%=      5-min Rain = 0
KCR1 101858Z 05003KT 27/12 A3021 RMK A01 T02730118  RH  038%=      5-min Rain = 0
KCR1 101859Z 04003KT 27/12 A3021 RMK A01 T02720121  RH  039%=      5-min Rain = 0
KCR1 101900Z 16003KT 27/12 A3021 RMK A01 T02730123  RH  039%=      5-min Rain = 0
KCR1 101901Z 13004KT 28/12 A3021 RMK A01 T02780124  RH  038%=      5-min Rain = 0
KCR1 101902Z 14006KT 28/12 A3021 RMK A01 T02810123  RH  037%=      5-min Rain = 0
KCR1 101903Z 14007KT 28/12 A3021 RMK A01 T02800118  RH  037%=      5-min Rain = 0
KCR1 101904Z 14006KT 28/12 A3021 RMK A01 T02780117  RH  037%=      5-min Rain = 0
KCR1 101905Z 14007KT 28/12 A3021 RMK A01 T02760117  RH  037%=      5-min Rain = 0
KCR1 101906Z 15009KT 28/12 A3021 RMK A01 T02770118  RH  037%=      5-min Rain = 0
KCR1 101907Z 16008KT 28/12 A3021 RMK A01 T02800117  RH  037%=      5-min Rain = 0
KCR1 101908Z 18005KT 28/12 A3021 RMK A01 T02790117  RH  037%=      5-min Rain = 0
KCR1 101909Z 19005KT 28/11 A3021 RMK A01 T02790114  RH  036%=      5-min Rain = 0
KCR1 101910Z 18006KT 28/12 A3021 RMK A01 T02790115  RH  036%=      5-min Rain = 0
KCR1 101911Z 16006KT 28/12 A302 RMK A01 T02790117  RH  036%=      5-min Rain = 0
KCR1 101912Z 15004KT 28/12 A302 RMK A01 T02810119  RH  037%=      5-min Rain = 0
KCR1 101913Z 16005KT 28/12 A302 RMK A01 T02830120  RH  036%=      5-min Rain = 0
KCR1 101914Z 17003KT 28/12 A302 RMK A01 T02820116  RH  035%=      5-min Rain = 0
KCR1 101915Z 10002KT 28/11 A302 RMK A01 T02800114  RH  036%=      5-min Rain = 0
KCR1 101916Z 11002KT 28/12 A302 RMK A01 T02790116  RH  036%=      5-min Rain = 0
KCR1 101917Z 13004KT 28/12 A302 RMK A01 T02790119  RH  037%=      5-min Rain = 0
KCR1 101918Z 11003KT 28/12 A302 RMK A01 T02790117  RH  036%=      5-min Rain = 0
KCR1 101919Z 13008KT 28/12 A302 RMK A01 T02810122  RH  037%=      5-min Rain = 0
KCR1 101920Z 11007KT 28/12 A302 RMK A01 T02820118  RH  036%=      5-min Rain = 0
KCR1 101921Z 09005KT 28/12 A302 RMK A01 T02810119  RH  037%=      5-min Rain = 0
KCR1 101922Z 10006KT 28/12 A302 RMK A01 T02810120  RH  037%=      5-min Rain = 0
KCR1 101923Z 11006KT 28/12 A302 RMK A01 T02820119  RH  036%=      5-min Rain = 0
KCR1 101924Z 12007KT 28/12 A302 RMK A01 T02820118  RH  036%=      5-min Rain = 0
KCR1 101925Z 12005KT 28/12 A302 RMK A01 T02810117  RH  036%=      5-min Rain = 0
KCR1 101926Z 11007KT 28/12 A302 RMK A01 T02800116  RH  036%=      5-min Rain = 0
KCR1 101927Z 11003KT 28/11 A302 RMK A01 T02800113  RH  035%=      5-min Rain = 0
KCR1 101928Z 11003KT 28/11 A302 RMK A01 T02800114  RH  036%=      5-min Rain = 0
KCR1 101929Z 13005KT 28/12 A302 RMK A01 T02800115  RH  036%=      5-min Rain = 0
KCR1 101930Z 14007KT 28/12 A302 RMK A01 T02810116  RH  036%=      5-min Rain = 0
KCR1 101931Z 14005KT 28/12 A302 RMK A01 T02800115  RH  036%=      5-min Rain = 0
KCR1 101932Z 17004KT 28/12 A302 RMK A01 T02790115  RH  036%=      5-min Rain = 0
KCR1 101933Z 14003KT 28/12 A302 RMK A01 T02790116  RH  036%=      5-min Rain = 0
KCR1 101934Z 13001KT 28/12 A302 RMK A01 T02790115  RH  036%=      5-min Rain = 0
KCR1 101935Z 21002KT 28/12 A3019 RMK A01 T02790117  RH  037%=      5-min Rain = 0
KCR1 101936Z 25003KT 28/12 A3019 RMK A01 T02810116  RH  036%=      5-min Rain = 0
KCR1 101937Z 26004KT 28/12 A3019 RMK A01 T02820116  RH  036%=      5-min Rain = 0
KCR1 101938Z 22003KT 28/12 A3019 RMK A01 T02830115  RH  035%=      5-min Rain = 0
KCR1 101939Z 18005KT 28/12 A3019 RMK A01 T02840116  RH  035%=      5-min Rain = 0
KCR1 101940Z 16005KT 28/12 A3019 RMK A01 T02840118  RH  036%=      5-min Rain = 0
KCR1 101941Z 14008G13KT 29/12 A3019 RMK A01 T02850123  RH  037%=      5-min Rain = 0
KCR1 101942Z 15008KT 29/12 A3019 RMK A01 T02870121  RH  036%=      5-min Rain = 0
KCR1 101943Z 16004KT 29/12 A3019 RMK A01 T02850116  RH  035%=      5-min Rain = 0
KCR1 101944Z 14007KT 28/12 A3019 RMK A01 T02820118  RH  036%=      5-min Rain = 0
KCR1 101945Z 15007KT 28/12 A3019 RMK A01 T02830118  RH  036%=      5-min Rain = 0
KCR1 101946Z 16005KT 28/12 A3019 RMK A01 T02830119  RH  036%=      5-min Rain = 0
KCR1 101947Z 17004KT 29/12 A3019 RMK A01 T02850117  RH  035%=      5-min Rain = 0
KCR1 101948Z 19002KT 29/11 A3019 RMK A01 T02850114  RH  035%=      5-min Rain = 0
KCR1 101949Z 18002KT 29/12 A3019 RMK A01 T02850115  RH  035%=      5-min Rain = 0
KCR1 101950Z 16008KT 29/12 A3019 RMK A01 T02870117  RH  035%=      5-min Rain = 0
KCR1 101951Z 20005KT 29/11 A3019 RMK A01 T02870112  RH  034%=      5-min Rain = 0
KCR1 101952Z 18004KT 29/11 A3019 RMK A01 T02850110  RH  034%=      5-min Rain = 0
KCR1 101953Z 15007KT 29/12 A3019 RMK A01 T02860117  RH  035%=      5-min Rain = 0
KCR1 101954Z 15007KT 29/12 A3019 RMK A01 T02910120  RH  035%=      5-min Rain = 0
KCR1 101955Z 16005KT 29/11 A3019 RMK A01 T02930109  RH  032%=      5-min Rain = 0
KCR1 101956Z 17006KT 29/11 A3019 RMK A01 T02890107  RH  032%=      5-min Rain = 0
KCR1 101957Z 14004KT 29/11 A3019 RMK A01 T02870109  RH  033%=      5-min Rain = 0
KCR1 101958Z 10006KT 29/11 A3019 RMK A01 T02870110  RH  033%=      5-min Rain = 0
KCR1 101959Z 16005KT 29/11 A3019 RMK A01 T02860109  RH  033%=      5-min Rain = 0
KCR1 102000Z 18005KT 28/11 A3018 RMK A01 T02840105  RH  033%=      5-min Rain = 0
KCR1 102001Z 14003KT 28/11 A3018 RMK A01 T02830106  RH  033%=      5-min Rain = 0
KCR1 102002Z 13002KT 28/11 A3018 RMK A01 T02840110  RH  034%=      5-min Rain = 0
KCR1 102003Z 09004KT 29/11 A3018 RMK A01 T02870109  RH  033%=      5-min Rain = 0
KCR1 102004Z 08007KT 29/11 A3018 RMK A01 T02890106  RH  032%=      5-min Rain = 0
KCR1 102005Z 06006KT 29/11 A3018 RMK A01 T02890111  RH  033%=      5-min Rain = 0
KCR1 102006Z 07005KT 29/11 A3018 RMK A01 T02900114  RH  034%=      5-min Rain = 0
KCR1 102007Z 08007KT 29/12 A3018 RMK A01 T02900115  RH  034%=      5-min Rain = 0
KCR1 102008Z 08005KT 29/11 A3018 RMK A01 T02910113  RH  033%=      5-min Rain = 0
KCR1 102009Z 07004KT 29/11 A3018 RMK A01 T02890109  RH  033%=      5-min Rain = 0
KCR1 102010Z 11005KT 29/11 A3018 RMK A01 T02860112  RH  034%=      5-min Rain = 0
KCR1 102011Z 14006KT 29/12 A3018 RMK A01 T02850121  RH  036%=      5-min Rain = 0
KCR1 102012Z 14005KT 29/12 A3018 RMK A01 T02860117  RH  035%=      5-min Rain = 0
KCR1 102013Z 15006KT 29/12 A3018 RMK A01 T02850117  RH  035%=      5-min Rain = 0
KCR1 102014Z 17008KT 28/12 A3018 RMK A01 T02840118  RH  036%=      5-min Rain = 0
KCR1 102015Z 18005KT 29/11 A3018 RMK A01 T02850114  RH  034%=      5-min Rain = 0
KCR1 102016Z 17006KT 29/12 A3018 RMK A01 T02850115  RH  035%=      5-min Rain = 0
KCR1 102017Z 16005KT 29/12 A3018 RMK A01 T02850116  RH  035%=      5-min Rain = 0
KCR1 102018Z 16004KT 29/12 A3018 RMK A01 T02860119  RH  036%=      5-min Rain = 0
KCR1 102019Z 10006KT 29/12 A3018 RMK A01 T02880115  RH  034%=      5-min Rain = 0
KCR1 102020Z 07005KT 29/11 A3018 RMK A01 T02890110  RH  033%=      5-min Rain = 0
KCR1 102021Z 06005KT 29/11 A3018 RMK A01 T02900106  RH  032%=      5-min Rain = 0
KCR1 102022Z 07003KT 29/11 A3018 RMK A01 T02900112  RH  033%=      5-min Rain = 0
KCR1 102023Z 10004KT 29/11 A3018 RMK A01 T02930109  RH  032%=      5-min Rain = 0
KCR1 102024Z 11009KT 29/11 A3018 RMK A01 T02930106  RH  031%=      5-min Rain = 0
KCR1 102025Z 13008KT 29/11 A3018 RMK A01 T02900110  RH  033%=      5-min Rain = 0
KCR1 102026Z 11009KT 29/11 A3018 RMK A01 T02890110  RH  033%=      5-min Rain = 0
KCR1 102027Z 11007KT 29/11 A3018 RMK A01 T02890107  RH  032%=      5-min Rain = 0
KCR1 102028Z 11007KT 29/11 A3018 RMK A01 T02880108  RH  033%=      5-min Rain = 0
KCR1 102029Z 10007KT 29/11 A3018 RMK A01 T02880109  RH  033%=      5-min Rain = 0
KCR1 102030Z 10005KT 29/11 A3017 RMK A01 T02890108  RH  033%=      5-min Rain = 0
KCR1 102031Z 09004KT 29/10 A3017 RMK A01 T02890104  RH  032%=      5-min Rain = 0
KCR1 102032Z 08005KT 29/11 A3017 RMK A01 T02870107  RH  033%=      5-min Rain = 0
KCR1 102033Z 09003KT 29/11 A3017 RMK A01 T02860110  RH  034%=      5-min Rain = 0
KCR1 102034Z 09002KT 29/11 A3017 RMK A01 T02860107  RH  033%=      5-min Rain = 0
KCR1 102035Z 14005KT 29/11 A3017 RMK A01 T02880109  RH  033%=      5-min Rain = 0
KCR1 102036Z 14005KT 29/11 A3017 RMK A01 T02870110  RH  033%=      5-min Rain = 0
KCR1 102037Z 13005KT 29/11 A3017 RMK A01 T02870109  RH  033%=      5-min Rain = 0
KCR1 102038Z 15003KT 29/11 A3017 RMK A01 T02860106  RH  033%=      5-min Rain = 0
KCR1 102039Z 10001KT 29/11 A3017 RMK A01 T02870107  RH  033%=      5-min Rain = 0
KCR1 102040Z 11002KT 29/11 A3017 RMK A01 T02880108  RH  033%=      5-min Rain = 0
KCR1 102041Z 11004KT 29/11 A3017 RMK A01 T02890110  RH  033%=      5-min Rain = 0
KCR1 102042Z 10003KT 29/11 A3017 RMK A01 T02880109  RH  033%=      5-min Rain = 0
KCR1 102043Z 08002KT 29/11 A3017 RMK A01 T02870109  RH  033%=      5-min Rain = 0
KCR1 102044Z 09007KT 29/11 A3017 RMK A01 T02880114  RH  034%=      5-min Rain = 0
KCR1 102045Z 12008KT 29/12 A3017 RMK A01 T02900117  RH  034%=      5-min Rain = 0
KCR1 102046Z 11006KT 29/12 A3017 RMK A01 T02910118  RH  034%=      5-min Rain = 0
KCR1 102047Z 10005KT 29/12 A3017 RMK A01 T02920119  RH  034%=      5-min Rain = 0
KCR1 102048Z 12002KT 29/12 A3017 RMK A01 T02920119  RH  034%=      5-min Rain = 0
KCR1 102049Z 09005KT 29/12 A3017 RMK A01 T02930117  RH  034%=      5-min Rain = 0
KCR1 102050Z 10007KT 29/12 A3017 RMK A01 T02920120  RH  035%=      5-min Rain = 0
KCR1 102051Z 11009KT 29/12 A3016 RMK A01 T02930119  RH  034%=      5-min Rain = 0
KCR1 102052Z 10008KT 29/12 A3017 RMK A01 T02920116  RH  034%=      5-min Rain = 0
KCR1 102053Z 10006KT 29/12 A3017 RMK A01 T02890115  RH  034%=      5-min Rain = 0
KCR1 102054Z 07006KT 29/12 A3017 RMK A01 T02870115  RH  034%=      5-min Rain = 0
KCR1 102055Z 06005KT 29/12 A3017 RMK A01 T02870115  RH  034%=      5-min Rain = 0
KCR1 102056Z 05005KT 29/12 A3016 RMK A01 T02870115  RH  034%=      5-min Rain = 0
KCR1 102057Z 03005KT 29/12 A3016 RMK A01 T02870116  RH  035%=      5-min Rain = 0
KCR1 102058Z 02005KT 29/11 A3016 RMK A01 T02880113  RH  034%=      5-min Rain = 0
KCR1 102059Z 05005KT 29/12 A3016 RMK A01 T02870115  RH  034%=      5-min Rain = 0
KCR1 102100Z 07004KT 29/11 A3016 RMK A01 T02870113  RH  034%=      5-min Rain = 0
KCR1 102101Z 06001KT 29/11 A3016 RMK A01 T02860111  RH  034%=      5-min Rain = 0
KCR1 102102Z 35001KT 29/11 A3016 RMK A01 T02860111  RH  034%=      5-min Rain = 0
KCR1 102103Z 06001KT 29/11 A3016 RMK A01 T02860111  RH  034%=      5-min Rain = 0
KCR1 102104Z 10004KT 29/12 A3016 RMK A01 T02890120  RH  035%=      5-min Rain = 0
KCR1 102105Z 11005KT 29/12 A3016 RMK A01 T02930115  RH  033%=      5-min Rain = 0
KCR1 102106Z 12007KT 30/12 A3016 RMK A01 T02960117  RH  033%=      5-min Rain = 0
KCR1 102107Z 14009KT 30/12 A3016 RMK A01 T02980115  RH  032%=      5-min Rain = 0
KCR1 102108Z 15005KT 30/11 A3016 RMK A01 T02960112  RH  032%=      5-min Rain = 0
KCR1 102109Z 15004KT 29/11 A3016 RMK A01 T02930109  RH  032%=      5-min Rain = 0
KCR1 102110Z 12007KT 29/11 A3016 RMK A01 T02910113  RH  033%=      5-min Rain = 0
KCR1 102111Z 10007KT 29/11 A3016 RMK A01 T02910108  RH  032%=      5-min Rain = 0
KCR1 102112Z 12006KT 29/11 A3016 RMK A01 T02910108  RH  032%=      5-min Rain = 0
KCR1 102113Z 11007KT 29/11 A3016 RMK A01 T02900109  RH  032%=      5-min Rain = 0
KCR1 102114Z 09009KT 29/11 A3016 RMK A01 T02920110  RH  032%=      5-min Rain = 0
KCR1 102115Z 09007KT 29/11 A3016 RMK A01 T02940108  RH  032%=      5-min Rain = 0
KCR1 102116Z 09004KT 29/10 A3016 RMK A01 T02920104  RH  031%=      5-min Rain = 0
KCR1 102117Z 08005KT 29/11 A3016 RMK A01 T02900106  RH  032%=      5-min Rain = 0
KCR1 102118Z 06005KT 29/10 A3016 RMK A01 T02890103  RH  032%=      5-min Rain = 0
KCR1 102119Z 07003KT 29/11 A3016 RMK A01 T02880105  RH  032%=      5-min Rain = 0
KCR1 102120Z 12004KT 29/11 A3016 RMK A01 T02880105  RH  032%=      5-min Rain = 0
KCR1 102121Z 15009KT 29/11 A3016 RMK A01 T02890110  RH  033%=      5-min Rain = 0
KCR1 102122Z 14011KT 29/11 A3016 RMK A01 T02900110  RH  033%=      5-min Rain = 0
KCR1 102123Z 14010KT 29/11 A3016 RMK A01 T02920109  RH  032%=      5-min Rain = 0
KCR1 102124Z 15006KT 29/11 A3016 RMK A01 T02920106  RH  032%=      5-min Rain = 0
KCR1 102125Z 15004KT 29/11 A3015 RMK A01 T02910105  RH  032%=      5-min Rain = 0
KCR1 102126Z 14007KT 29/11 A3015 RMK A01 T02910112  RH  033%=      5-min Rain = 0
KCR1 102127Z 13009KT 30/12 A3015 RMK A01 T02950115  RH  033%=      5-min Rain = 0
KCR1 102128Z 12010KT 30/11 A3015 RMK A01 T02980110  RH  031%=      5-min Rain = 0
KCR1 102129Z 12007KT 30/11 A3016 RMK A01 T02960107  RH  031%=      5-min Rain = 0
KCR1 102130Z 13005KT 29/11 A3016 RMK A01 T02930107  RH  031%=      5-min Rain = 0
KCR1 102131Z 15003KT 29/11 A3016 RMK A01 T02910105  RH  032%=      5-min Rain = 0
KCR1 102132Z 13004KT 29/11 A3016 RMK A01 T02900105  RH  032%=      5-min Rain = 0
KCR1 102133Z 10002KT 29/10 A3016 RMK A01 T02900104  RH  031%=      5-min Rain = 0
KCR1 102134Z 11002KT 29/11 A3015 RMK A01 T02890105  RH  032%=      5-min Rain = 0
KCR1 102135Z 13003KT 29/11 A3016 RMK A01 T02890105  RH  032%=      5-min Rain = 0
KCR1 102136Z 08005KT 29/11 A3016 RMK A01 T02900105  RH  032%=      5-min Rain = 0
KCR1 102137Z 09007KT 29/11 A3016 RMK A01 T02910106  RH  032%=      5-min Rain = 0
KCR1 102138Z 11008KT 29/11 A3016 RMK A01 T02930107  RH  032%=      5-min Rain = 0
KCR1 102139Z 11007KT 29/11 A3016 RMK A01 T02940106  RH  031%=      5-min Rain = 0
KCR1 102140Z 11008KT 29/11 A3016 RMK A01 T02930110  RH  032%=      5-min Rain = 0
KCR1 102141Z 11008KT 29/11 A3015 RMK A01 T02940106  RH  031%=      5-min Rain = 0
KCR1 102142Z 12008KT 29/11 A3015 RMK A01 T02930108  RH  032%=      5-min Rain = 0
KCR1 102143Z 08007KT 29/11 A3015 RMK A01 T02930107  RH  032%=      5-min Rain = 0
KCR1 102144Z 10005KT 29/10 A3015 RMK A01 T02920104  RH  031%=      5-min Rain = 0
KCR1 102145Z 13009KT 29/11 A3015 RMK A01 T02920110  RH  032%=      5-min Rain = 0
KCR1 102146Z 13009KT 29/10 A3016 RMK A01 T02940104  RH  031%=      5-min Rain = 0
KCR1 102147Z 12009KT 29/10 A3015 RMK A01 T02910102  RH  031%=      5-min Rain = 0
KCR1 102148Z 11008KT 29/10 A3015 RMK A01 T02900102  RH  031%=      5-min Rain = 0
KCR1 102149Z 11008KT 29/11 A3016 RMK A01 T02900105  RH  032%=      5-min Rain = 0
KCR1 102150Z 12008KT 29/10 A3015 RMK A01 T02900101  RH  031%=      5-min Rain = 0
KCR1 102151Z 12006KT 29/10 A3015 RMK A01 T02920102  RH  031%=      5-min Rain = 0
KCR1 102152Z 12006KT 29/10 A3016 RMK A01 T02920104  RH  031%=      5-min Rain = 0
KCR1 102153Z 11006KT 29/10 A3015 RMK A01 T02940102  RH  030%=      5-min Rain = 0
KCR1 102154Z 11004KT 29/10 A3015 RMK A01 T02940099  RH  030%=      5-min Rain = 0
KCR1 102155Z 08003KT 29/10 A3015 RMK A01 T02920098  RH  030%=      5-min Rain = 0
KCR1 102156Z 08004KT 29/10 A3015 RMK A01 T02920099  RH  030%=      5-min Rain = 0
KCR1 102157Z 08004KT 29/10 A3015 RMK A01 T02910099  RH  030%=      5-min Rain = 0
KCR1 102158Z 09006G11KT 29/10 A3015 RMK A01 T02910101  RH  031%=      5-min Rain = 0
KCR1 102159Z 09008KT 29/10 A3015 RMK A01 T02920101  RH  031%=      5-min Rain = 0
KCR1 102200Z 09007KT 29/10 A3015 RMK A01 T02930104  RH  031%=      5-min Rain = 0
KCR1 102201Z 10008KT 30/10 A3015 RMK A01 T02950103  RH  030%=      5-min Rain = 0
KCR1 102202Z 08007KT 30/10 A3015 RMK A01 T02950097  RH  029%=      5-min Rain = 0
KCR1 102203Z 07005KT 29/10 A3015 RMK A01 T02930101  RH  030%=      5-min Rain = 0
KCR1 102204Z 06007KT 29/10 A3015 RMK A01 T02940103  RH  031%=      5-min Rain = 0
KCR1 102205Z 10007KT 30/10 A3015 RMK A01 T02950102  RH  030%=      5-min Rain = 0
KCR1 102206Z 12009KT 29/11 A3015 RMK A01 T02940105  RH  031%=      5-min Rain = 0
KCR1 102207Z 13007KT 30/11 A3015 RMK A01 T02950105  RH  031%=      5-min Rain = 0
KCR1 102208Z 14006KT 30/11 A3015 RMK A01 T02950108  RH  032%=      5-min Rain = 0
KCR1 102209Z 12006KT 30/11 A3015 RMK A01 T02960109  RH  031%=      5-min Rain = 0
KCR1 102210Z 12010KT 30/10 A3015 RMK A01 T02960104  RH  030%=      5-min Rain = 0
KCR1 102211Z 13007KT 29/10 A3015 RMK A01 T02940101  RH  030%=      5-min Rain = 0
KCR1 102212Z 12007KT 29/10 A3015 RMK A01 T02930104  RH  031%=      5-min Rain = 0
KCR1 102213Z 12010KT 29/10 A3015 RMK A01 T02940101  RH  030%=      5-min Rain = 0
KCR1 102214Z 13008KT 29/10 A3015 RMK A01 T02930099  RH  030%=      5-min Rain = 0
KCR1 102215Z 12006G11KT 29/10 A3015 RMK A01 T02910099  RH  030%=      5-min Rain = 0
KCR1 102216Z 13011KT 29/10 A3015 RMK A01 T02900099  RH  030%=      5-min Rain = 0
KCR1 102217Z 13007KT 29/10 A3015 RMK A01 T02900097  RH  030%=      5-min Rain = 0
KCR1 102218Z 12004KT 29/10 A3015 RMK A01 T02890100  RH  031%=      5-min Rain = 0
KCR1 102219Z 12006KT 29/10 A3015 RMK A01 T02890100  RH  031%=      5-min Rain = 0
KCR1 102220Z 13005KT 29/10 A3015 RMK A01 T02910101  RH  031%=      5-min Rain = 0
KCR1 102221Z 15008G14KT 29/10 A3015 RMK A01 T02910100  RH  030%=      5-min Rain = 0
KCR1 102222Z 10009KT 29/10 A3015 RMK A01 T02920099  RH  030%=      5-min Rain = 0
KCR1 102223Z 11009KT 29/10 A3015 RMK A01 T02910098  RH  030%=      5-min Rain = 0
KCR1 102224Z 10006KT 29/10 A3015 RMK A01 T02910097  RH  030%=      5-min Rain = 0
KCR1 102225Z 09006KT 29/10 A3015 RMK A01 T02910098  RH  030%=      5-min Rain = 0
KCR1 102226Z 10005KT 29/10 A3015 RMK A01 T02910103  RH  031%=      5-min Rain = 0
KCR1 102227Z 12007KT 29/10 A3015 RMK A01 T02940100  RH  030%=      5-min Rain = 0
KCR1 102228Z 13005KT 29/10 A3015 RMK A01 T02930099  RH  030%=      5-min Rain = 0
KCR1 102229Z 14008KT 29/10 A3015 RMK A01 T02920100  RH  030%=      5-min Rain = 0
KCR1 102230Z 11008KT 29/10 A3015 RMK A01 T02910101  RH  031%=      5-min Rain = 0
KCR1 102231Z 10007KT 29/10 A3015 RMK A01 T02920104  RH  031%=      5-min Rain = 0
KCR1 102232Z 11007KT 29/11 A3015 RMK A01 T02930105  RH  031%=      5-min Rain = 0
KCR1 102233Z 10006KT 29/11 A3015 RMK A01 T02940107  RH  031%=      5-min Rain = 0
KCR1 102234Z 10006KT 30/11 A3015 RMK A01 T02950105  RH  031%=      5-min Rain = 0
KCR1 102235Z 08007KT 29/10 A3015 RMK A01 T02940104  RH  031%=      5-min Rain = 0
KCR1 102236Z 10005KT 29/10 A3015 RMK A01 T02910104  RH  031%=      5-min Rain = 0
KCR1 102237Z 12006KT 29/11 A3015 RMK A01 T02910106  RH  032%=      5-min Rain = 0
KCR1 102238Z 12005KT 29/10 A3015 RMK A01 T02910104  RH  031%=      5-min Rain = 0
KCR1 102239Z 14005KT 29/10 A3015 RMK A01 T02900103  RH  031%=      5-min Rain = 0
KCR1 102240Z 13006KT 29/10 A3015 RMK A01 T02890103  RH  032%=      5-min Rain = 0
KCR1 102241Z 13007KT 29/11 A3015 RMK A01 T02890106  RH  032%=      5-min Rain = 0
KCR1 102242Z 14006KT 29/10 A3015 RMK A01 T02890102  RH  031%=      5-min Rain = 0
KCR1 102243Z 12006KT 29/10 A3015 RMK A01 T02890102  RH  031%=      5-min Rain = 0
KCR1 102244Z 12007KT 29/10 A3015 RMK A01 T02890102  RH  031%=      5-min Rain = 0
KCR1 102245Z 13006KT 29/10 A3015 RMK A01 T02880098  RH  031%=      5-min Rain = 0
KCR1 102246Z 11003KT 29/10 A3015 RMK A01 T02870100  RH  031%=      5-min Rain = 0
KCR1 102247Z 12003KT 29/10 A3015 RMK A01 T02870100  RH  031%=      5-min Rain = 0
KCR1 102248Z 12005KT 29/10 A3015 RMK A01 T02890104  RH  032%=      5-min Rain = 0
KCR1 102249Z 14005KT 29/11 A3015 RMK A01 T02900106  RH  032%=      5-min Rain = 0
KCR1 102250Z 14006KT 29/11 A3015 RMK A01 T02900107  RH  032%=      5-min Rain = 0
KCR1 102251Z 13005KT 29/11 A3015 RMK A01 T02890105  RH  032%=      5-min Rain = 0
KCR1 102252Z 13005KT 29/11 A3015 RMK A01 T02880107  RH  033%=      5-min Rain = 0
KCR1 102253Z 11005KT 29/11 A3015 RMK A01 T02880108  RH  033%=      5-min Rain = 0
KCR1 102254Z 13005KT 29/11 A3015 RMK A01 T02870108  RH  033%=      5-min Rain = 0
KCR1 102255Z 12005KT 29/11 A3015 RMK A01 T02870107  RH  033%=      5-min Rain = 0
KCR1 102256Z 11006KT 29/11 A3015 RMK A01 T02880109  RH  033%=      5-min Rain = 0
KCR1 102257Z 12008KT 29/11 A3015 RMK A01 T02890106  RH  032%=      5-min Rain = 0
KCR1 102258Z 12008KT 29/11 A3015 RMK A01 T02890106  RH  032%=      5-min Rain = 0
KCR1 102259Z 12008KT 29/10 A3015 RMK A01 T02890103  RH  032%=      5-min Rain = 0
KCR1 102300Z 12005KT 29/11 A3015 RMK A01 T02880106  RH  032%=      5-min Rain = 0
KCR1 102301Z 12011KT 29/11 A3015 RMK A01 T02880106  RH  032%=      5-min Rain = 0
KCR1 102302Z 10009KT 29/11 A3015 RMK A01 T02880105  RH  032%=      5-min Rain = 0
KCR1 102303Z 10008KT 29/11 A3015 RMK A01 T02880105  RH  032%=      5-min Rain = 0
KCR1 102304Z 12010KT 29/10 A3015 RMK A01 T02890104  RH  032%=      5-min Rain = 0
KCR1 102305Z 12008KT 29/10 A3015 RMK A01 T02880104  RH  032%=      5-min Rain = 0
KCR1 102306Z 11008KT 29/11 A3015 RMK A01 T02860105  RH  032%=      5-min Rain = 0
KCR1 102307Z 11009KT 29/10 A3015 RMK A01 T02860103  RH  032%=      5-min Rain = 0
KCR1 102308Z 10007KT 29/10 A3015 RMK A01 T02860102  RH  032%=      5-min Rain = 0
KCR1 102309Z 09006KT 29/10 A3015 RMK A01 T02860101  RH  031%=      5-min Rain = 0
KCR1 102310Z 09005KT 29/10 A3015 RMK A01 T02860100  RH  031%=      5-min Rain = 0
KCR1 102311Z 11005KT 29/10 A3015 RMK A01 T02860103  RH  032%=      5-min Rain = 0
KCR1 102312Z 09006KT 29/10 A3015 RMK A01 T02870101  RH  031%=      5-min Rain = 0
KCR1 102313Z 09005KT 29/10 A3015 RMK A01 T02860101  RH  031%=      5-min Rain = 0
KCR1 102314Z 09006KT 29/10 A3015 RMK A01 T02860101  RH  031%=      5-min Rain = 0
KCR1 102315Z 09006KT 29/10 A3015 RMK A01 T02860101  RH  032%=      5-min Rain = 0
KCR1 102316Z 08008KT 29/10 A3015 RMK A01 T02860102  RH  032%=      5-min Rain = 0
KCR1 102317Z 07008KT 29/10 A3015 RMK A01 T02860102  RH  032%=      5-min Rain = 0
KCR1 102318Z 08007KT 29/10 A3015 RMK A01 T02860103  RH  032%=      5-min Rain = 0
KCR1 102319Z 10008KT 29/10 A3015 RMK A01 T02870102  RH  032%=      5-min Rain = 0
KCR1 102320Z 09009KT 29/10 A3015 RMK A01 T02860098  RH  031%=      5-min Rain = 0
KCR1 102321Z 09009KT 29/10 A3015 RMK A01 T02870099  RH  031%=      5-min Rain = 0
KCR1 102322Z 09006KT 29/10 A3015 RMK A01 T02860098  RH  031%=      5-min Rain = 0
KCR1 102323Z 10007KT 29/10 A3015 RMK A01 T02850100  RH  031%=      5-min Rain = 0
KCR1 102324Z 11007KT 29/10 A3015 RMK A01 T02860098  RH  031%=      5-min Rain = 0
KCR1 102325Z 11008KT 29/10 A3015 RMK A01 T02860097  RH  031%=      5-min Rain = 0
KCR1 102326Z 12009KT 29/10 A3015 RMK A01 T02860099  RH  031%=      5-min Rain = 0
KCR1 102327Z 11008KT 29/10 A3015 RMK A01 T02850101  RH  032%=      5-min Rain = 0
KCR1 102328Z 12008KT 29/10 A3015 RMK A01 T02850100  RH  031%=      5-min Rain = 0
KCR1 102329Z 12009KT 28/10 A3015 RMK A01 T02840097  RH  031%=      5-min Rain = 0
KCR1 102330Z 11008KT 28/10 A3015 RMK A01 T02830097  RH  031%=      5-min Rain = 0
KCR1 102331Z 10009KT 28/10 A3015 RMK A01 T02830097  RH  031%=      5-min Rain = 0
KCR1 102332Z 10008KT 28/10 A3015 RMK A01 T02830095  RH  031%=      5-min Rain = 0
KCR1 102333Z 10008KT 28/10 A3015 RMK A01 T02820097  RH  031%=      5-min Rain = 0
KCR1 102334Z 11010KT 28/10 A3015 RMK A01 T02820097  RH  031%=      5-min Rain = 0
KCR1 102335Z 12009KT 28/10 A3015 RMK A01 T02820097  RH  031%=      5-min Rain = 0
KCR1 102336Z 10009KT 28/10 A3015 RMK A01 T02820096  RH  031%=      5-min Rain = 0
KCR1 102337Z 12007KT 28/09 A3015 RMK A01 T02820094  RH  031%=      5-min Rain = 0
KCR1 102338Z 11009KT 28/10 A3015 RMK A01 T02810096  RH  031%=      5-min Rain = 0
KCR1 102339Z 11008KT 28/10 A3015 RMK A01 T02810096  RH  031%=      5-min Rain = 0
KCR1 102340Z 11006KT 28/10 A3015 RMK A01 T02810096  RH  031%=      5-min Rain = 0
KCR1 102341Z 11007KT 28/09 A3015 RMK A01 T02810094  RH  031%=      5-min Rain = 0
KCR1 102342Z 13008KT 28/09 A3015 RMK A01 T02810094  RH  031%=      5-min Rain = 0
KCR1 102343Z 13007KT 28/09 A3015 RMK A01 T02810094  RH  031%=      5-min Rain = 0
KCR1 102344Z 13008KT 28/09 A3015 RMK A01 T02800094  RH  031%=      5-min Rain = 0
KCR1 102345Z 13007KT 28/09 A3015 RMK A01 T02800093  RH  031%=      5-min Rain = 0
KCR1 102346Z 13006KT 28/09 A3015 RMK A01 T02800094  RH  031%=      5-min Rain = 0
KCR1 102347Z 11006KT 28/10 A3015 RMK A01 T02790095  RH  032%=      5-min Rain = 0
KCR1 102348Z 11008KT 28/09 A3015 RMK A01 T02790093  RH  031%=      5-min Rain = 0
KCR1 102349Z 11006KT 28/09 A3015 RMK A01 T02790092  RH  031%=      5-min Rain = 0
KCR1 102350Z 11007KT 28/09 A3015 RMK A01 T02790093  RH  031%=      5-min Rain = 0
KCR1 102351Z 11007KT 28/09 A3015 RMK A01 T02790093  RH  031%=      5-min Rain = 0
KCR1 102352Z 13006KT 28/09 A3015 RMK A01 T02790094  RH  031%=      5-min Rain = 0
KCR1 102353Z 13007KT 28/09 A3015 RMK A01 T02790094  RH  031%=      5-min Rain = 0
KCR1 102354Z 12008KT 28/09 A3015 RMK A01 T02780093  RH  031%=      5-min Rain = 0
KCR1 102355Z 12007KT 28/09 A3015 RMK A01 T02780093  RH  031%=      5-min Rain = 0
KCR1 102356Z 11008KT 28/09 A3015 RMK A01 T02780092  RH  031%=      5-min Rain = 0
KCR1 102357Z 12005KT 28/09 A3015 RMK A01 T02780091  RH  031%=      5-min Rain = 0
KCR1 102358Z 12007KT 28/09 A3015 RMK A01 T02770093  RH  031%=      5-min Rain = 0
KCR1 102359Z 12008KT 28/09 A3015 RMK A01 T02770093  RH  031%=      5-min Rain = 0
KCR1 110000Z 10006KT 28/09 A3015 RMK A01 T02770094  RH  032%=      5-min Rain = 0
KCR1 110001Z 10009KT 28/09 A3015 RMK A01 T02770093  RH  031%=      5-min Rain = 0
KCR1 110002Z 11008KT 28/09 A3015 RMK A01 T02770092  RH  031%=      5-min Rain = 0
KCR1 110003Z 10006KT 28/09 A3015 RMK A01 T02770092  RH  031%=      5-min Rain = 0
KCR1 110004Z 10007KT 28/09 A3015 RMK A01 T02770093  RH  031%=      5-min Rain = 0
KCR1 110005Z 10006KT 28/09 A3015 RMK A01 T02760090  RH  031%=      5-min Rain = 0
KCR1 110006Z 10006KT 28/09 A3015 RMK A01 T02760092  RH  031%=      5-min Rain = 0
KCR1 110007Z 11006KT 28/09 A3015 RMK A01 T02760092  RH  032%=      5-min Rain = 0
KCR1 110008Z 11007KT 28/09 A3015 RMK A01 T02750093  RH  032%=      5-min Rain = 0
KCR1 110009Z 11006KT 28/09 A3015 RMK A01 T02750093  RH  032%=      5-min Rain = 0
KCR1 110010Z 12007KT 27/09 A3015 RMK A01 T02740092  RH  032%=      5-min Rain = 0
KCR1 110011Z 11005KT 27/09 A3015 RMK A01 T02740092  RH  032%=      5-min Rain = 0
KCR1 110012Z 11006KT 27/09 A3015 RMK A01 T02730092  RH  032%=      5-min Rain = 0
KCR1 110013Z 11006KT 27/09 A3015 RMK A01 T02730091  RH  032%=      5-min Rain = 0
KCR1 110014Z 11006KT 27/09 A3015 RMK A01 T02730092  RH  032%=      5-min Rain = 0
KCR1 110015Z 11005KT 27/09 A3015 RMK A01 T02730093  RH  032%=      5-min Rain = 0
KCR1 110016Z 11005KT 27/09 A3015 RMK A01 T02720093  RH  033%=      5-min Rain = 0
KCR1 110017Z 11005KT 27/09 A3015 RMK A01 T02710094  RH  033%=      5-min Rain = 0
KCR1 110018Z 11005KT 27/10 A3015 RMK A01 T02710095  RH  033%=      5-min Rain = 0
KCR1 110019Z 11005KT 27/10 A3015 RMK A01 T02700096  RH  033%=      5-min Rain = 0
KCR1 110020Z 11005KT 27/10 A3015 RMK A01 T02690096  RH  034%=      5-min Rain = 0
KCR1 110021Z 11006KT 27/09 A3015 RMK A01 T02680094  RH  033%=      5-min Rain = 0
KCR1 110022Z 11006KT 27/09 A3015 RMK A01 T02680094  RH  033%=      5-min Rain = 0
KCR1 110023Z 11005KT 27/09 A3015 RMK A01 T02680094  RH  033%=      5-min Rain = 0
KCR1 110024Z 11006KT 27/10 A3015 RMK A01 T02680095  RH  034%=      5-min Rain = 0
KCR1 110025Z 11006KT 27/10 A3015 RMK A01 T02680096  RH  034%=      5-min Rain = 0
KCR1 110026Z 11006KT 27/10 A3015 RMK A01 T02670097  RH  034%=      5-min Rain = 0
KCR1 110027Z 11005KT 27/10 A3015 RMK A01 T02670098  RH  035%=      5-min Rain = 0
KCR1 110028Z 12005KT 27/10 A3015 RMK A01 T02660099  RH  035%=      5-min Rain = 0
KCR1 110029Z 12005KT 27/10 A3015 RMK A01 T02650099  RH  035%=      5-min Rain = 0
KCR1 110030Z 12005KT 26/10 A3015 RMK A01 T02640100  RH  036%=      5-min Rain = 0
KCR1 110031Z 12006KT 26/10 A3015 RMK A01 T02620101  RH  036%=      5-min Rain = 0
KCR1 110032Z 12006KT 26/10 A3015 RMK A01 T02610101  RH  036%=      5-min Rain = 0
KCR1 110033Z 13006KT 26/10 A3015 RMK A01 T02610102  RH  037%=      5-min Rain = 0
KCR1 110034Z 13006KT 26/10 A3015 RMK A01 T02600103  RH  037%=      5-min Rain = 0
KCR1 110035Z 12005KT 26/10 A3015 RMK A01 T02590104  RH  038%=      5-min Rain = 0
KCR1 110036Z 12006KT 26/10 A3015 RMK A01 T02580104  RH  038%=      5-min Rain = 0
KCR1 110037Z 12005KT 26/10 A3015 RMK A01 T02570104  RH  038%=      5-min Rain = 0
KCR1 110038Z 12006KT 26/11 A3015 RMK A01 T02560105  RH  038%=      5-min Rain = 0
KCR1 110039Z 12005KT 26/10 A3015 RMK A01 T02550104  RH  039%=      5-min Rain = 0
KCR1 110040Z 12005KT 26/10 A3015 RMK A01 T02550104  RH  039%=      5-min Rain = 0
KCR1 110041Z 12005KT 25/11 A3015 RMK A01 T02540105  RH  039%=      5-min Rain = 0
KCR1 110042Z 12006KT 25/10 A3015 RMK A01 T02540104  RH  039%=      5-min Rain = 0
KCR1 110043Z 12005KT 25/10 A3015 RMK A01 T02530104  RH  039%=      5-min Rain = 0
KCR1 110044Z 12005KT 25/10 A3015 RMK A01 T02520104  RH  039%=      5-min Rain = 0
KCR1 110045Z 12005KT 25/10 A3015 RMK A01 T02510104  RH  040%=      5-min Rain = 0
KCR1 110046Z 12005KT 25/10 A3015 RMK A01 T02500104  RH  040%=      5-min Rain = 0
KCR1 110047Z 12005KT 25/10 A3015 RMK A01 T02500104  RH  040%=      5-min Rain = 0
KCR1 110048Z 12005KT 25/10 A3015 RMK A01 T02500104  RH  040%=      5-min Rain = 0
KCR1 110049Z 12005KT 25/10 A3015 RMK A01 T02490104  RH  040%=      5-min Rain = 0
KCR1 110050Z 12005KT 25/10 A3015 RMK A01 T02480104  RH  040%=      5-min Rain = 0
KCR1 110051Z 12005KT 25/10 A3015 RMK A01 T02480104  RH  040%=      5-min Rain = 0
KCR1 110052Z 12005KT 25/10 A3015 RMK A01 T02470104  RH  040%=      5-min Rain = 0
KCR1 110053Z 12005KT 25/10 A3015 RMK A01 T02470104  RH  041%=      5-min Rain = 0
KCR1 110054Z 12005KT 25/10 A3015 RMK A01 T02470104  RH  041%=      5-min Rain = 0
KCR1 110055Z 12005KT 25/10 A3015 RMK A01 T02460104  RH  041%=      5-min Rain = 0
KCR1 110056Z 12005KT 25/10 A3015 RMK A01 T02460104  RH  041%=      5-min Rain = 0
KCR1 110057Z 11005KT 25/10 A3015 RMK A01 T02460104  RH  041%=      5-min Rain = 0
KCR1 110058Z 11005KT 25/10 A3015 RMK A01 T02460104  RH  041%=      5-min Rain = 0
KCR1 110059Z 11005KT 25/10 A3015 RMK A01 T02460104  RH  041%=      5-min Rain = 0
KCR1 110100Z 11005KT 25/10 A3015 RMK A01 T02450104  RH  041%=      5-min Rain = 0
KCR1 110101Z 11005KT 25/10 A3015 RMK A01 T02460104  RH  041%=      5-min Rain = 0
KCR1 110102Z 11005KT 25/10 A3015 RMK A01 T02460104  RH  041%=      5-min Rain = 0
KCR1 110103Z 11005KT 25/11 A3015 RMK A01 T02450105  RH  041%=      5-min Rain = 0
KCR1 110104Z 11005KT 25/11 A3015 RMK A01 T02450105  RH  041%=      5-min Rain = 0
KCR1 110105Z 11005KT 25/11 A3015 RMK A01 T02450105  RH  041%=      5-min Rain = 0
KCR1 110106Z 11005KT 25/11 A3015 RMK A01 T02450106  RH  042%=      5-min Rain = 0
KCR1 110107Z 10005KT 24/11 A3015 RMK A01 T02440106  RH  042%=      5-min Rain = 0
KCR1 110108Z 10005KT 24/11 A3015 RMK A01 T02440105  RH  042%=      5-min Rain = 0
KCR1 110109Z 10005KT 24/11 A3015 RMK A01 T02440105  RH  042%=      5-min Rain = 0
KCR1 110110Z 10005KT 24/11 A3015 RMK A01 T02430105  RH  042%=      5-min Rain = 0
KCR1 110111Z 10005KT 24/11 A3015 RMK A01 T02430105  RH  042%=      5-min Rain = 0
KCR1 110112Z 11005KT 24/11 A3015 RMK A01 T02420105  RH  042%=      5-min Rain = 0
KCR1 110113Z 11005KT 24/11 A3015 RMK A01 T02420105  RH  042%=      5-min Rain = 0
KCR1 110114Z 11005KT 24/11 A3015 RMK A01 T02420106  RH  042%=      5-min Rain = 0
KCR1 110115Z 11005KT 24/11 A3015 RMK A01 T02420105  RH  042%=      5-min Rain = 0
KCR1 110116Z 11005KT 24/11 A3015 RMK A01 T02420105  RH  042%=      5-min Rain = 0
KCR1 110117Z 10005KT 24/11 A3015 RMK A01 T02420105  RH  042%=      5-min Rain = 0
KCR1 110118Z 10005KT 24/11 A3015 RMK A01 T02420105  RH  042%=      5-min Rain = 0
KCR1 110119Z 10005KT 24/10 A3015 RMK A01 T02420104  RH  042%=      5-min Rain = 0
KCR1 110120Z 10005KT 24/10 A3015 RMK A01 T02420104  RH  042%=      5-min Rain = 0
KCR1 110121Z 10005KT 24/10 A3015 RMK A01 T02420104  RH  042%=      5-min Rain = 0
KCR1 110122Z 10005KT 24/10 A3015 RMK A01 T02420104  RH  042%=      5-min Rain = 0
KCR1 110123Z 10006KT 24/10 A3015 RMK A01 T02420104  RH  042%=      5-min Rain = 0
KCR1 110124Z 10006KT 24/10 A3015 RMK A01 T02410104  RH  042%=      5-min Rain = 0
KCR1 110125Z 10006KT 24/10 A3015 RMK A01 T02410104  RH  042%=      5-min Rain = 0
KCR1 110126Z 10006KT 24/10 A3015 RMK A01 T02410104  RH  042%=      5-min Rain = 0
KCR1 110127Z 10006KT 24/10 A3015 RMK A01 T02410104  RH  042%=      5-min Rain = 0
KCR1 110128Z 11006KT 24/10 A3015 RMK A01 T02410104  RH  042%=      5-min Rain = 0
KCR1 110129Z 10006KT 24/10 A3015 RMK A01 T02410104  RH  042%=      5-min Rain = 0
KCR1 110130Z 10006KT 24/10 A3015 RMK A01 T02400104  RH  042%=      5-min Rain = 0
KCR1 110131Z 10006KT 24/10 A3015 RMK A01 T02400104  RH  042%=      5-min Rain = 0
KCR1 110132Z 10006KT 24/10 A3015 RMK A01 T02400104  RH  042%=      5-min Rain = 0
KCR1 110133Z 10006KT 24/10 A3015 RMK A01 T02400104  RH  042%=      5-min Rain = 0
KCR1 110134Z 10005KT 24/10 A3015 RMK A01 T02400104  RH  042%=      5-min Rain = 0
KCR1 110135Z 10005KT 24/10 A3015 RMK A01 T02390104  RH  042%=      5-min Rain = 0
KCR1 110136Z 10006KT 24/10 A3015 RMK A01 T02390104  RH  043%=      5-min Rain = 0
KCR1 110137Z 10006KT 24/10 A3015 RMK A01 T02380104  RH  043%=      5-min Rain = 0
KCR1 110138Z 10006KT 24/10 A3015 RMK A01 T02370104  RH  043%=      5-min Rain = 0
KCR1 110139Z 10006KT 24/10 A3015 RMK A01 T02370104  RH  043%=      5-min Rain = 0
KCR1 110140Z 10006KT 24/10 A3015 RMK A01 T02370104  RH  043%=      5-min Rain = 0
KCR1 110141Z 10006KT 24/10 A3015 RMK A01 T02360103  RH  043%=      5-min Rain = 0
KCR1 110142Z 10006KT 24/10 A3015 RMK A01 T02360103  RH  043%=      5-min Rain = 0
KCR1 110143Z 10006KT 24/10 A3015 RMK A01 T02370103  RH  043%=      5-min Rain = 0
KCR1 110144Z 10006KT 24/10 A3015 RMK A01 T02370103  RH  043%=      5-min Rain = 0
KCR1 110145Z 10006KT 24/10 A3015 RMK A01 T02370103  RH  043%=      5-min Rain = 0
KCR1 110146Z 10006KT 24/10 A3015 RMK A01 T02370103  RH  043%=      5-min Rain = 0
KCR1 110147Z 10006KT 24/10 A3015 RMK A01 T02360103  RH  043%=      5-min Rain = 0
KCR1 110148Z 10006KT 24/10 A3015 RMK A01 T02360103  RH  043%=      5-min Rain = 0
KCR1 110149Z 10006KT 24/10 A3015 RMK A01 T02360102  RH  043%=      5-min Rain = 0
KCR1 110150Z 10005KT 24/10 A3015 RMK A01 T02350102  RH  043%=      5-min Rain = 0
KCR1 110151Z 10005KT 24/10 A3015 RMK A01 T02350103  RH  043%=      5-min Rain = 0
KCR1 110152Z 10005KT 23/10 A3015 RMK A01 T02340102  RH  043%=      5-min Rain = 0
KCR1 110153Z 11005KT 23/10 A3015 RMK A01 T02340102  RH  043%=      5-min Rain = 0
KCR1 110154Z 11006KT 23/10 A3015 RMK A01 T02330102  RH  043%=      5-min Rain = 0
KCR1 110155Z 11006KT 23/10 A3016 RMK A01 T02330103  RH  044%=      5-min Rain = 0
KCR1 110156Z 11006KT 23/10 A3016 RMK A01 T02330102  RH  044%=      5-min Rain = 0
KCR1 110157Z 11006KT 23/10 A3016 RMK A01 T02330102  RH  044%=      5-min Rain = 0
KCR1 110158Z 11006KT 23/10 A3016 RMK A01 T02330102  RH  044%=      5-min Rain = 0
KCR1 110159Z 11006KT 23/10 A3016 RMK A01 T02320102  RH  044%=      5-min Rain = 0
KCR1 110200Z 11006KT 23/10 A3016 RMK A01 T02320103  RH  044%=      5-min Rain = 0
KCR1 110201Z 11006KT 23/10 A3016 RMK A01 T02310103  RH  044%=      5-min Rain = 0
KCR1 110202Z 11006KT 23/10 A3016 RMK A01 T02300102  RH  044%=      5-min Rain = 0
KCR1 110203Z 11006KT 23/10 A3016 RMK A01 T02300103  RH  044%=      5-min Rain = 0
KCR1 110204Z 11006KT 23/10 A3016 RMK A01 T02300102  RH  044%=      5-min Rain = 0
KCR1 110205Z 11006KT 23/10 A3016 RMK A01 T02290103  RH  045%=      5-min Rain = 0
KCR1 110206Z 11006KT 23/10 A3016 RMK A01 T02290103  RH  045%=      5-min Rain = 0
KCR1 110207Z 11006KT 23/10 A3016 RMK A01 T02280102  RH  045%=      5-min Rain = 0
KCR1 110208Z 11006KT 23/10 A3016 RMK A01 T02270103  RH  045%=      5-min Rain = 0
KCR1 110209Z 11006KT 23/10 A3016 RMK A01 T02260102  RH  045%=      5-min Rain = 0
KCR1 110210Z 11006KT 23/10 A3016 RMK A01 T02260102  RH  045%=      5-min Rain = 0
KCR1 110211Z 11005KT 23/10 A3016 RMK A01 T02260102  RH  045%=      5-min Rain = 0
KCR1 110212Z 11006KT 23/10 A3016 RMK A01 T02250102  RH  046%=      5-min Rain = 0
KCR1 110213Z 10006KT 23/10 A3016 RMK A01 T02250102  RH  045%=      5-min Rain = 0
KCR1 110214Z 11006KT 23/10 A3016 RMK A01 T02250101  RH  045%=      5-min Rain = 0
KCR1 110215Z 10006KT 23/10 A3017 RMK A01 T02260101  RH  045%=      5-min Rain = 0
KCR1 110216Z 11006KT 23/10 A3017 RMK A01 T02260100  RH  045%=      5-min Rain = 0
KCR1 110217Z 10006KT 23/10 A3017 RMK A01 T02260100  RH  045%=      5-min Rain = 0
KCR1 110218Z 10006KT 23/10 A3017 RMK A01 T02260100  RH  045%=      5-min Rain = 0
KCR1 110219Z 10006KT 23/10 A3017 RMK A01 T02270101  RH  045%=      5-min Rain = 0
KCR1 110220Z 10007KT 23/10 A3017 RMK A01 T02260100  RH  045%=      5-min Rain = 0
KCR1 110221Z 11006KT 23/10 A3017 RMK A01 T02260100  RH  045%=      5-min Rain = 0
KCR1 110222Z 10006KT 23/10 A3017 RMK A01 T02260100  RH  045%=      5-min Rain = 0
KCR1 110223Z 10006KT 23/10 A3017 RMK A01 T02260100  RH  045%=      5-min Rain = 0
KCR1 110224Z 10006KT 23/10 A3017 RMK A01 T02270100  RH  045%=      5-min Rain = 0
KCR1 110225Z 10006KT 23/10 A3017 RMK A01 T02270101  RH  045%=      5-min Rain = 0
KCR1 110226Z 09007KT 23/10 A3017 RMK A01 T02270101  RH  045%=      5-min Rain = 0
KCR1 110227Z 08007KT 23/10 A3017 RMK A01 T02250101  RH  045%=      5-min Rain = 0
KCR1 110228Z 08007KT 22/10 A3017 RMK A01 T02240102  RH  046%=      5-min Rain = 0
KCR1 110229Z 08007KT 22/10 A3017 RMK A01 T02230101  RH  046%=      5-min Rain = 0
KCR1 110230Z 08007KT 22/10 A3017 RMK A01 T02220101  RH  046%=      5-min Rain = 0
KCR1 110231Z 08007KT 22/10 A3017 RMK A01 T02200101  RH  047%=      5-min Rain = 0
KCR1 110232Z 08006KT 22/10 A3017 RMK A01 T02180101  RH  047%=      5-min Rain = 0
KCR1 110233Z 09006KT 22/10 A3017 RMK A01 T02160101  RH  048%=      5-min Rain = 0
KCR1 110234Z 08007KT 22/10 A3017 RMK A01 T02150100  RH  048%=      5-min Rain = 0
KCR1 110235Z 08006KT 22/10 A3017 RMK A01 T02150100  RH  048%=      5-min Rain = 0
KCR1 110236Z 09007KT 22/10 A3017 RMK A01 T02150099  RH  048%=      5-min Rain = 0
KCR1 110237Z 09007KT 22/10 A3017 RMK A01 T02150099  RH  048%=      5-min Rain = 0
KCR1 110238Z 09007KT 22/10 A3017 RMK A01 T02150099  RH  048%=      5-min Rain = 0
KCR1 110239Z 09007KT 22/10 A3017 RMK A01 T02150100  RH  048%=      5-min Rain = 0
KCR1 110240Z 09007KT 22/10 A3017 RMK A01 T02150100  RH  048%=      5-min Rain = 0
KCR1 110241Z 09008KT 22/10 A3017 RMK A01 T02160100  RH  047%=      5-min Rain = 0
KCR1 110242Z 09007KT 22/10 A3017 RMK A01 T02170100  RH  047%=      5-min Rain = 0
KCR1 110243Z 09007KT 22/10 A3017 RMK A01 T02180100  RH  047%=      5-min Rain = 0
KCR1 110244Z 09007KT 22/10 A3017 RMK A01 T02180100  RH  047%=      5-min Rain = 0
KCR1 110245Z 09007KT 22/10 A3017 RMK A01 T02190100  RH  047%=      5-min Rain = 0
KCR1 110246Z 10007KT 22/10 A3017 RMK A01 T02200100  RH  047%=      5-min Rain = 0
KCR1 110247Z 09008KT 22/10 A3017 RMK A01 T02210100  RH  046%=      5-min Rain = 0
KCR1 110248Z 10007KT 22/10 A3017 RMK A01 T02220101  RH  046%=      5-min Rain = 0
KCR1 110249Z 09008KT 22/10 A3017 RMK A01 T02220101  RH  046%=      5-min Rain = 0
KCR1 110250Z 10007KT 22/10 A3017 RMK A01 T02210102  RH  046%=      5-min Rain = 0
KCR1 110251Z 10007KT 22/10 A3017 RMK A01 T02210102  RH  047%=      5-min Rain = 0
KCR1 110252Z 10007KT 22/10 A3018 RMK A01 T02200102  RH  047%=      5-min Rain = 0
KCR1 110253Z 10008KT 22/10 A3018 RMK A01 T02200102  RH  047%=      5-min Rain = 0
KCR1 110254Z 10008KT 22/10 A3018 RMK A01 T02200102  RH  047%=      5-min Rain = 0
KCR1 110255Z 10008KT 22/10 A3018 RMK A01 T02210102  RH  047%=      5-min Rain = 0
KCR1 110256Z 10008KT 22/10 A3018 RMK A01 T02210102  RH  047%=      5-min Rain = 0
KCR1 110257Z 10008KT 22/10 A3018 RMK A01 T02210102  RH  047%=      5-min Rain = 0
KCR1 110258Z 10007KT 22/10 A3018 RMK A01 T02200102  RH  047%=      5-min Rain = 0
KCR1 110259Z 10008KT 22/10 A3018 RMK A01 T02200102  RH  047%=      5-min Rain = 0
KCR1 110300Z 10007KT 22/10 A3018 RMK A01 T02190102  RH  047%=      5-min Rain = 0
KCR1 110301Z 10007KT 22/10 A3018 RMK A01 T02190102  RH  047%=      5-min Rain = 0
KCR1 110302Z 10008KT 22/10 A3018 RMK A01 T02190102  RH  047%=      5-min Rain = 0
KCR1 110303Z 10008KT 22/10 A3018 RMK A01 T02190102  RH  047%=      5-min Rain = 0
KCR1 110304Z 10008KT 22/10 A3018 RMK A01 T02190102  RH  047%=      5-min Rain = 0
KCR1 110305Z 10008KT 22/10 A3018 RMK A01 T02190102  RH  047%=      5-min Rain = 0
KCR1 110306Z 10007KT 22/10 A3018 RMK A01 T02190102  RH  047%=      5-min Rain = 0
KCR1 110307Z 10007KT 22/10 A3018 RMK A01 T02190102  RH  047%=      5-min Rain = 0
KCR1 110308Z 10007KT 22/10 A3018 RMK A01 T02190102  RH  047%=      5-min Rain = 0
KCR1 110309Z 10007KT 22/10 A3018 RMK A01 T02190102  RH  047%=      5-min Rain = 0
KCR1 110310Z 10008KT 22/10 A3018 RMK A01 T02200103  RH  047%=      5-min Rain = 0
KCR1 110311Z 10008KT 22/10 A3018 RMK A01 T02200102  RH  047%=      5-min Rain = 0
KCR1 110312Z 11008KT 22/10 A3018 RMK A01 T02200103  RH  047%=      5-min Rain = 0
KCR1 110313Z 10008KT 22/10 A3018 RMK A01 T02200103  RH  047%=      5-min Rain = 0
KCR1 110314Z 11008KT 22/10 A3018 RMK A01 T02200103  RH  047%=      5-min Rain = 0
KCR1 110315Z 10008KT 22/10 A3018 RMK A01 T02200103  RH  047%=      5-min Rain = 0
KCR1 110316Z 11009KT 22/10 A3018 RMK A01 T02200103  RH  047%=      5-min Rain = 0
KCR1 110317Z 11008KT 22/10 A3018 RMK A01 T02210104  RH  047%=      5-min Rain = 0
KCR1 110318Z 10008KT 22/10 A3018 RMK A01 T02210104  RH  047%=      5-min Rain = 0
KCR1 110319Z 10008KT 22/10 A3018 RMK A01 T02210104  RH  047%=      5-min Rain = 0
KCR1 110320Z 11007KT 22/10 A3018 RMK A01 T02210104  RH  047%=      5-min Rain = 0
KCR1 110321Z 10008KT 22/10 A3018 RMK A01 T02210104  RH  047%=      5-min Rain = 0
KCR1 110322Z 10008KT 22/10 A3018 RMK A01 T02200104  RH  048%=      5-min Rain = 0
KCR1 110323Z 11008KT 22/10 A3018 RMK A01 T02200104  RH  048%=      5-min Rain = 0
KCR1 110324Z 11008KT 22/10 A3018 RMK A01 T02210104  RH  047%=      5-min Rain = 0
KCR1 110325Z 11008KT 22/10 A3018 RMK A01 T02210104  RH  047%=      5-min Rain = 0
KCR1 110326Z 11007KT 22/10 A3018 RMK A01 T02200104  RH  048%=      5-min Rain = 0
KCR1 110327Z 11008KT 22/11 A3018 RMK A01 T02200105  RH  048%=      5-min Rain = 0
KCR1 110328Z 11008KT 22/10 A3018 RMK A01 T02190104  RH  048%=      5-min Rain = 0
KCR1 110329Z 11007KT 22/11 A3018 RMK A01 T02180105  RH  048%=      5-min Rain = 0
KCR1 110330Z 11008KT 22/11 A3018 RMK A01 T02180105  RH  049%=      5-min Rain = 0
KCR1 110331Z 11007KT 22/11 A3018 RMK A01 T02180105  RH  049%=      5-min Rain = 0
KCR1 110332Z 11007KT 22/11 A3018 RMK A01 T02180105  RH  049%=      5-min Rain = 0
KCR1 110333Z 11007KT 22/11 A3018 RMK A01 T02170105  RH  049%=      5-min Rain = 0
KCR1 110334Z 10007KT 22/11 A3018 RMK A01 T02160105  RH  049%=      5-min Rain = 0
KCR1 110335Z 11008KT 22/11 A3018 RMK A01 T02160106  RH  049%=      5-min Rain = 0
KCR1 110336Z 11008KT 22/11 A3018 RMK A01 T02160105  RH  049%=      5-min Rain = 0
KCR1 110337Z 11007KT 22/11 A3018 RMK A01 T02160105  RH  049%=      5-min Rain = 0
KCR1 110338Z 11007KT 22/11 A3018 RMK A01 T02160106  RH  049%=      5-min Rain = 0
KCR1 110339Z 11007KT 22/11 A3018 RMK A01 T02150106  RH  050%=      5-min Rain = 0
KCR1 110340Z 11008KT 22/11 A3018 RMK A01 T02150106  RH  050%=      5-min Rain = 0
KCR1 110341Z 11007KT 21/11 A3018 RMK A01 T02140106  RH  050%=      5-min Rain = 0
KCR1 110342Z 11007KT 21/11 A3018 RMK A01 T02130106  RH  050%=      5-min Rain = 0
KCR1 110343Z 11007KT 21/11 A3018 RMK A01 T02130106  RH  050%=      5-min Rain = 0
KCR1 110344Z 11007KT 21/11 A3018 RMK A01 T02130106  RH  050%=      5-min Rain = 0
KCR1 110345Z 11007KT 21/11 A3018 RMK A01 T02120106  RH  051%=      5-min Rain = 0
KCR1 110346Z 11007KT 21/11 A3018 RMK A01 T02110106  RH  051%=      5-min Rain = 0
KCR1 110347Z 11006KT 21/11 A3018 RMK A01 T02100106  RH  051%=      5-min Rain = 0
KCR1 110348Z 11007KT 21/11 A3018 RMK A01 T02100106  RH  051%=      5-min Rain = 0
KCR1 110349Z 11006KT 21/11 A3018 RMK A01 T02100106  RH  051%=      5-min Rain = 0
KCR1 110350Z 11006KT 21/11 A3018 RMK A01 T02100106  RH  051%=      5-min Rain = 0
KCR1 110351Z 11006KT 21/11 A3018 RMK A01 T02100106  RH  051%=      5-min Rain = 0
KCR1 110352Z 11006KT 21/11 A3018 RMK A01 T02100106  RH  052%=      5-min Rain = 0
KCR1 110353Z 11006KT 21/11 A3018 RMK A01 T02080106  RH  052%=      5-min Rain = 0
KCR1 110354Z 11006KT 21/11 A3018 RMK A01 T02080106  RH  052%=      5-min Rain = 0
KCR1 110355Z 11006KT 21/11 A3018 RMK A01 T02080106  RH  052%=      5-min Rain = 0
KCR1 110356Z 11006KT 21/11 A3018 RMK A01 T02070106  RH  052%=      5-min Rain = 0
KCR1 110357Z 11005KT 21/11 A3018 RMK A01 T02070106  RH  052%=      5-min Rain = 0
KCR1 110358Z 11006KT 21/11 A3019 RMK A01 T02070106  RH  052%=      5-min Rain = 0
KCR1 110359Z 11006KT 21/11 A3019 RMK A01 T02060106  RH  053%=      5-min Rain = 0
KCR1 110400Z 11006KT 21/11 A3019 RMK A01 T02050106  RH  053%=      5-min Rain = 0
KCR1 110401Z 11005KT 21/11 A3019 RMK A01 T02050106  RH  053%=      5-min Rain = 0
KCR1 110402Z 11006KT 21/11 A3019 RMK A01 T02050106  RH  053%=      5-min Rain = 0
KCR1 110403Z 11006KT 21/11 A3019 RMK A01 T02050106  RH  053%=      5-min Rain = 0
KCR1 110404Z 11006KT 21/11 A3019 RMK A01 T02050106  RH  053%=      5-min Rain = 0
KCR1 110405Z 11006KT 20/11 A3019 RMK A01 T02040106  RH  053%=      5-min Rain = 0
KCR1 110406Z 11005KT 20/11 A3019 RMK A01 T02040106  RH  053%=      5-min Rain = 0
KCR1 110407Z 11005KT 20/11 A3019 RMK A01 T02030106  RH  054%=      5-min Rain = 0
KCR1 110408Z 12006KT 20/11 A3019 RMK A01 T02030106  RH  054%=      5-min Rain = 0
KCR1 110409Z 11006KT 20/11 A3019 RMK A01 T02030106  RH  054%=      5-min Rain = 0
KCR1 110410Z 11006KT 20/11 A3019 RMK A01 T02030106  RH  054%=      5-min Rain = 0
KCR1 110411Z 12006KT 20/11 A3019 RMK A01 T02030106  RH  054%=      5-min Rain = 0
KCR1 110412Z 11005KT 20/11 A3019 RMK A01 T02030106  RH  054%=      5-min Rain = 0
KCR1 110413Z 12006KT 20/11 A3019 RMK A01 T02030106  RH  054%=      5-min Rain = 0
KCR1 110414Z 12006KT 20/11 A3019 RMK A01 T02030107  RH  054%=      5-min Rain = 0
KCR1 110415Z 12006KT 20/11 A3019 RMK A01 T02030107  RH  054%=      5-min Rain = 0
KCR1 110416Z 12006KT 20/11 A3019 RMK A01 T02030107  RH  054%=      5-min Rain = 0
KCR1 110417Z 12006KT 20/11 A3019 RMK A01 T02030107  RH  054%=      5-min Rain = 0
KCR1 110418Z 11006KT 20/11 A3019 RMK A01 T02020107  RH  054%=      5-min Rain = 0
KCR1 110419Z 12006KT 20/11 A3019 RMK A01 T02020107  RH  054%=      5-min Rain = 0
KCR1 110420Z 12006KT 20/11 A3019 RMK A01 T02010107  RH  054%=      5-min Rain = 0
KCR1 110421Z 12006KT 20/11 A3019 RMK A01 T02020107  RH  054%=      5-min Rain = 0
KCR1 110422Z 12005KT 20/11 A3019 RMK A01 T02010107  RH  055%=      5-min Rain = 0
KCR1 110423Z 12006KT 20/11 A3019 RMK A01 T02010107  RH  055%=      5-min Rain = 0
KCR1 110424Z 12006KT 20/11 A3019 RMK A01 T02000107  RH  055%=      5-min Rain = 0
KCR1 110425Z 12006KT 20/11 A3019 RMK A01 T02000107  RH  055%=      5-min Rain = 0
KCR1 110426Z 12005KT 20/11 A3019 RMK A01 T01990107  RH  055%=      5-min Rain = 0
KCR1 110427Z 12005KT 20/11 A3019 RMK A01 T01980107  RH  056%=      5-min Rain = 0
KCR1 110428Z 12005KT 20/11 A3019 RMK A01 T01980107  RH  056%=      5-min Rain = 0
KCR1 110429Z 12006KT 20/11 A3019 RMK A01 T01980107  RH  056%=      5-min Rain = 0
KCR1 110430Z 13006KT 20/11 A3019 RMK A01 T01980107  RH  056%=      5-min Rain = 0
KCR1 110431Z 12005KT 20/11 A3019 RMK A01 T01970107  RH  056%=      5-min Rain = 0
KCR1 110432Z 12006KT 20/11 A3019 RMK A01 T01960107  RH  056%=      5-min Rain = 0
KCR1 110433Z 12005KT 20/11 A3019 RMK A01 T01960107  RH  056%=      5-min Rain = 0
KCR1 110434Z 12006KT 20/11 A3019 RMK A01 T01950107  RH  057%=      5-min Rain = 0
KCR1 110435Z 12006KT 20/11 A3019 RMK A01 T01950107  RH  057%=      5-min Rain = 0
KCR1 110436Z 12006KT 19/11 A3019 RMK A01 T01940107  RH  057%=      5-min Rain = 0
KCR1 110437Z 12006KT 19/11 A3019 RMK A01 T01940107  RH  057%=      5-min Rain = 0
KCR1 110438Z 12005KT 19/11 A3019 RMK A01 T01940107  RH  057%=      5-min Rain = 0
KCR1 110439Z 12006KT 19/11 A3019 RMK A01 T01940107  RH  057%=      5-min Rain = 0
KCR1 110440Z 12006KT 19/11 A3019 RMK A01 T01940107  RH  057%=      5-min Rain = 0
KCR1 110441Z 12006KT 19/11 A3019 RMK A01 T01940107  RH  057%=      5-min Rain = 0
KCR1 110442Z 12006KT 19/11 A3019 RMK A01 T01930107  RH  057%=      5-min Rain = 0
KCR1 110443Z 12006KT 19/11 A3019 RMK A01 T01940107  RH  057%=      5-min Rain = 0
KCR1 110444Z 12006KT 19/11 A3019 RMK A01 T01940107  RH  057%=      5-min Rain = 0
KCR1 110445Z 12006KT 19/11 A3019 RMK A01 T01930107  RH  057%=      5-min Rain = 0
KCR1 110446Z 12006KT 19/11 A3019 RMK A01 T01930107  RH  058%=      5-min Rain = 0
KCR1 110447Z 12006KT 19/11 A3019 RMK A01 T01920107  RH  058%=      5-min Rain = 0
KCR1 110448Z 12006KT 19/11 A3019 RMK A01 T01920107  RH  058%=      5-min Rain = 0
KCR1 110449Z 12006KT 19/11 A3019 RMK A01 T01920107  RH  058%=      5-min Rain = 0
KCR1 110450Z 12006KT 19/11 A3019 RMK A01 T01920107  RH  058%=      5-min Rain = 0
KCR1 110451Z 12006KT 19/11 A3019 RMK A01 T01910107  RH  058%=      5-min Rain = 0
KCR1 110452Z 12006KT 19/11 A3019 RMK A01 T01910107  RH  058%=      5-min Rain = 0
KCR1 110453Z 13005KT 19/11 A3019 RMK A01 T01910107  RH  058%=      5-min Rain = 0
KCR1 110454Z 12006KT 19/11 A3019 RMK A01 T01900107  RH  058%=      5-min Rain = 0
KCR1 110455Z 13005KT 19/11 A3019 RMK A01 T01900107  RH  059%=      5-min Rain = 0
KCR1 110456Z 13005KT 19/11 A3019 RMK A01 T01900107  RH  059%=      5-min Rain = 0
KCR1 110457Z 12005KT 19/11 A3019 RMK A01 T01890107  RH  059%=      5-min Rain = 0
KCR1 110458Z 12005KT 19/11 A3019 RMK A01 T01890107  RH  059%=      5-min Rain = 0
KCR1 110459Z 12005KT 19/11 A3019 RMK A01 T01890107  RH  059%=      5-min Rain = 0

Page generated in 0.0703 seconds.